SIA319 EGLL-WSSS

Flight info

Callsign SIA319
Flight time 12h 19m
Altitude 33000
Route DET L6 DVR L9 KONAN UL607 REMBA DCT MATUG DCT GUBAX DCT BOREP DCT ENITA DCT PEPIK/N0482F350 DCT ERGOM DCT TEGRI DCT LUGEB DCT UDROS DCT CRM/N0434F270 W71 TBN/N0488F350 UP146 YAVUZ UB374 INDUR N449 SULEL M747 BODKA/N0485F370 P130 MAMED B449 DOLOS B475 NINOP A909 LEMOD N644 DI A466 SULOM M890 LKN R460 TEPAL/N0488F390 R460 CEA L507 BGO M626 IKOGA Y24 PASVA Y514 NUFFA DCT PIBAP DCT PASPU DCT NYLON DCT POSUB DCT SANAT
Aircraft A388/J-SDE1E2E3GHIJ2J4J5M1P2RWXYZ/LB1D1

Departure

Time 2026-05-06 13:03
Airport London Heathrow Airport (EGLL)

Arrival

Time 2026-05-07 01:22
Airport Singapore Changi Airport (WSSS)
Time Latitude Longitude Altitude Speed Heading
2026-05-06 11:54 51.47098 -0.44199 92 ft 0 kts 270°
2026-05-06 12:46 51.47098 -0.44194 95 ft 3 kts 270°
2026-05-06 12:47 51.47098 -0.44151 92 ft 4 kts 270°
2026-05-06 12:47 51.47099 -0.44116 92 ft 4 kts 263°
2026-05-06 12:47 51.47105 -0.44082 92 ft 4 kts 233°
2026-05-06 12:47 51.47120 -0.44064 94 ft 4 kts 195°
2026-05-06 12:48 51.47145 -0.44060 95 ft 4 kts 179°
2026-05-06 12:48 51.47171 -0.44060 95 ft 4 kts 179°
2026-05-06 12:48 51.47198 -0.44061 94 ft 4 kts 179°
2026-05-06 12:48 51.47207 -0.44061 94 ft 0 kts 179°
2026-05-06 12:52 51.47205 -0.44061 94 ft 1 kts 179°
2026-05-06 12:52 51.47177 -0.44061 96 ft 7 kts 180°
2026-05-06 12:52 51.47105 -0.44060 96 ft 14 kts 179°
2026-05-06 12:53 51.47001 -0.44059 94 ft 16 kts 179°
2026-05-06 12:53 51.46907 -0.44057 95 ft 14 kts 179°
2026-05-06 12:53 51.46831 -0.44056 95 ft 7 kts 179°
2026-05-06 12:53 51.46778 -0.44059 93 ft 5 kts 206°
2026-05-06 12:54 51.46758 -0.44103 94 ft 6 kts 253°
2026-05-06 12:54 51.46753 -0.44187 94 ft 9 kts 270°
2026-05-06 12:54 51.46753 -0.44303 94 ft 12 kts 270°
2026-05-06 12:54 51.46753 -0.44440 92 ft 13 kts 270°
2026-05-06 12:55 51.46752 -0.44588 93 ft 14 kts 270°
2026-05-06 12:55 51.46752 -0.44741 92 ft 14 kts 269°
2026-05-06 12:56 51.46752 -0.44778 92 ft 14 kts 270°
2026-05-06 12:56 51.46748 -0.45766 95 ft 14 kts 269°
2026-05-06 12:57 51.46747 -0.45926 95 ft 15 kts 270°
2026-05-06 12:57 51.46747 -0.46093 95 ft 15 kts 270°
2026-05-06 12:57 51.46746 -0.46262 96 ft 16 kts 270°
2026-05-06 12:57 51.46747 -0.46437 96 ft 16 kts 271°
2026-05-06 12:58 51.46748 -0.46615 95 ft 16 kts 270°
2026-05-06 12:58 51.46747 -0.46796 95 ft 16 kts 269°
2026-05-06 12:58 51.46746 -0.46978 95 ft 17 kts 269°
2026-05-06 12:58 51.46745 -0.47165 95 ft 17 kts 270°
2026-05-06 12:59 51.46745 -0.47352 95 ft 17 kts 269°
2026-05-06 12:59 51.46744 -0.47541 94 ft 17 kts 269°
2026-05-06 12:59 51.46743 -0.47736 92 ft 18 kts 270°
2026-05-06 12:59 51.46743 -0.47938 93 ft 18 kts 270°
2026-05-06 13:00 51.46743 -0.48141 92 ft 17 kts 269°
2026-05-06 13:00 51.46742 -0.48271 92 ft 12 kts 269°
2026-05-06 13:00 51.46741 -0.48411 92 ft 13 kts 269°
2026-05-06 13:00 51.46741 -0.48563 92 ft 12 kts 270°
2026-05-06 13:01 51.46741 -0.48672 92 ft 7 kts 270°
2026-05-06 13:01 51.46727 -0.48726 95 ft 5 kts 215°
2026-05-06 13:01 51.46689 -0.48745 96 ft 8 kts 187°
2026-05-06 13:01 51.46623 -0.48763 96 ft 11 kts 194°
2026-05-06 13:02 51.46537 -0.48786 94 ft 13 kts 169°
2026-05-06 13:02 51.46483 -0.48700 95 ft 11 kts 105°
2026-05-06 13:02 51.46478 -0.48620 97 ft 15 kts 90°
2026-05-06 13:02 51.46481 -0.48044 93 ft 89 kts 89°
2026-05-06 13:03 51.46486 -0.46714 97 ft 145 kts 89°
2026-05-06 13:03 51.46505 -0.44896 105 ft 178 kts 88°
2026-05-06 13:03 51.46491 -0.42898 575 ft 175 kts 87°
2026-05-06 13:03 51.46421 -0.40951 1024 ft 184 kts 101°
2026-05-06 13:04 51.45808 -0.39049 1229 ft 202 kts 122°
2026-05-06 13:04 51.44924 -0.37191 1350 ft 217 kts 124°
2026-05-06 13:04 51.44089 -0.35043 1592 ft 236 kts 112°
2026-05-06 13:04 51.43456 -0.32513 1876 ft 254 kts 104°
2026-05-06 13:05 51.42979 -0.29796 2452 ft 259 kts 100°
2026-05-06 13:05 51.42568 -0.26968 3118 ft 261 kts 99°
2026-05-06 13:05 51.42184 -0.24133 3822 ft 262 kts 99°
2026-05-06 13:05 51.41797 -0.21260 4517 ft 264 kts 99°
2026-05-06 13:06 51.41407 -0.18369 5204 ft 267 kts 99°
2026-05-06 13:06 51.41010 -0.15446 5875 ft 270 kts 99°
2026-05-06 13:06 51.40605 -0.12490 6558 ft 272 kts 99°
2026-05-06 13:06 51.40192 -0.09504 7130 ft 277 kts 100°
2026-05-06 13:07 51.39773 -0.06472 7715 ft 281 kts 100°
2026-05-06 13:07 51.39355 -0.03434 8301 ft 285 kts 100°
2026-05-06 13:07 51.38923 -0.00316 8913 ft 289 kts 100°
2026-05-06 13:07 51.38481 0.02855 9468 ft 294 kts 101°
2026-05-06 13:08 51.38033 0.06069 10076 ft 298 kts 101°
2026-05-06 13:08 51.37572 0.09374 10333 ft 313 kts 101°
2026-05-06 13:08 51.37083 0.12872 10502 ft 330 kts 101°
2026-05-06 13:08 51.36568 0.16531 10677 ft 345 kts 101°
2026-05-06 13:09 51.36036 0.20301 11141 ft 349 kts 101°
2026-05-06 13:09 51.35497 0.24114 11638 ft 353 kts 101°
2026-05-06 13:09 51.34956 0.27944 12191 ft 355 kts 102°
2026-05-06 13:09 51.34406 0.31819 12725 ft 359 kts 102°
2026-05-06 13:10 51.33856 0.35677 13234 ft 363 kts 102°
2026-05-06 13:10 51.33292 0.39623 13772 ft 365 kts 102°
2026-05-06 13:10 51.32725 0.43585 14230 ft 368 kts 102°
2026-05-06 13:10 51.32151 0.47581 14726 ft 370 kts 102°
2026-05-06 13:11 51.31573 0.51606 15178 ft 372 kts 102°
2026-05-06 13:11 51.30989 0.55652 15623 ft 376 kts 103°
2026-05-06 13:11 51.30399 0.59720 16107 ft 377 kts 104°
2026-05-06 13:11 51.29671 0.63760 16557 ft 379 kts 107°
2026-05-06 13:12 51.28924 0.67813 17001 ft 381 kts 107°
2026-05-06 13:12 51.28176 0.71903 17420 ft 384 kts 107°
2026-05-06 13:12 51.27435 0.75954 17873 ft 386 kts 107°
2026-05-06 13:12 51.26679 0.80082 18294 ft 389 kts 107°
2026-05-06 13:13 51.25915 0.84234 18677 ft 391 kts 107°
2026-05-06 13:13 51.25146 0.88406 19060 ft 393 kts 107°
2026-05-06 13:13 51.24373 0.92588 19414 ft 395 kts 107°
2026-05-06 13:13 51.23593 0.96795 19780 ft 396 kts 107°
2026-05-06 13:14 51.22806 1.01033 20164 ft 398 kts 107°
2026-05-06 13:14 51.22017 1.05275 20522 ft 400 kts 107°
2026-05-06 13:14 51.21223 1.09531 20880 ft 402 kts 108°
2026-05-06 13:14 51.20421 1.13820 21246 ft 404 kts 108°
2026-05-06 13:15 51.19625 1.18067 21592 ft 406 kts 108°
2026-05-06 13:15 51.18814 1.22387 21931 ft 408 kts 108°
2026-05-06 13:15 51.17996 1.26727 22275 ft 410 kts 108°
2026-05-06 13:15 51.17174 1.31084 22630 ft 412 kts 108°
2026-05-06 13:16 51.16416 1.35505 22945 ft 415 kts 102°
2026-05-06 13:16 51.16031 1.40080 23301 ft 418 kts 95°
2026-05-06 13:16 51.15842 1.44707 23605 ft 420 kts 95°
2026-05-06 13:16 51.15629 1.49360 23901 ft 421 kts 95°
2026-05-06 13:17 51.15405 1.54016 24197 ft 423 kts 95°
2026-05-06 13:17 51.15178 1.58631 24488 ft 424 kts 95°
2026-05-06 13:17 51.14946 1.63326 24781 ft 426 kts 95°
2026-05-06 13:17 51.14712 1.68036 25083 ft 427 kts 95°
2026-05-06 13:18 51.14475 1.72765 25378 ft 429 kts 95°
2026-05-06 13:18 51.14236 1.77510 25706 ft 431 kts 95°
2026-05-06 13:18 51.13995 1.82270 26024 ft 432 kts 95°
2026-05-06 13:18 51.13750 1.87052 26348 ft 434 kts 95°
2026-05-06 13:19 51.13506 1.91790 26688 ft 436 kts 95°
2026-05-06 13:19 51.13256 1.96608 27002 ft 438 kts 95°
2026-05-06 13:19 51.13003 2.01440 27351 ft 440 kts 95°
2026-05-06 13:19 51.12745 2.06318 27737 ft 441 kts 95°
2026-05-06 13:20 51.12485 2.11194 28070 ft 444 kts 96°
2026-05-06 13:20 51.12222 2.16096 28416 ft 445 kts 95°
2026-05-06 13:20 51.11956 2.21011 28786 ft 447 kts 95°
2026-05-06 13:20 51.11688 2.25948 29147 ft 449 kts 96°
2026-05-06 13:21 51.11415 2.30907 29527 ft 450 kts 96°
2026-05-06 13:21 51.11139 2.35881 29857 ft 453 kts 96°
2026-05-06 13:21 51.10864 2.40817 30166 ft 455 kts 96°
2026-05-06 13:21 51.10582 2.45828 30482 ft 456 kts 96°
2026-05-06 13:22 51.10296 2.50869 30793 ft 458 kts 96°
2026-05-06 13:22 51.10007 2.55927 31097 ft 460 kts 96°
2026-05-06 13:22 51.09715 2.61011 31384 ft 462 kts 96°
2026-05-06 13:22 51.09251 2.66079 31671 ft 463 kts 103°
2026-05-06 13:23 51.08429 2.71034 31996 ft 464 kts 108°
2026-05-06 13:23 51.07512 2.75972 32277 ft 466 kts 107°
2026-05-06 13:23 51.06625 2.80860 32565 ft 468 kts 107°
2026-05-06 13:23 51.05724 2.85839 32861 ft 470 kts 107°
2026-05-06 13:24 51.04817 2.90844 32936 ft 476 kts 107°
2026-05-06 13:24 51.02936 3.01135 32933 ft 490 kts 107°
2026-05-06 13:25 51.01026 3.11526 32932 ft 489 kts 107°
2026-05-06 13:25 50.99108 3.21893 32920 ft 489 kts 107°
2026-05-06 13:26 50.97184 3.32236 32910 ft 488 kts 108°
2026-05-06 13:26 50.95266 3.42489 32904 ft 488 kts 108°
2026-05-06 13:27 50.93330 3.52780 32896 ft 487 kts 108°
2026-05-06 13:27 50.91388 3.63050 32887 ft 486 kts 108°
2026-05-06 13:28 50.89427 3.73285 32881 ft 485 kts 108°
2026-05-06 13:28 50.87464 3.83428 32876 ft 485 kts 108°
2026-05-06 13:29 50.85478 3.93647 32873 ft 485 kts 108°
2026-05-06 13:29 50.83484 4.03855 32877 ft 486 kts 108°
2026-05-06 13:30 50.81495 4.13986 32877 ft 486 kts 108°
2026-05-06 13:30 50.79481 4.24187 32876 ft 486 kts 109°
2026-05-06 13:31 50.77457 4.34390 32881 ft 487 kts 109°
2026-05-06 13:31 50.75423 4.44584 32881 ft 487 kts 109°
2026-05-06 13:32 50.73381 4.54768 32883 ft 487 kts 109°
2026-05-06 13:32 50.71357 4.64892 32879 ft 487 kts 108°
2026-05-06 13:33 50.69390 4.75107 32879 ft 487 kts 108°
2026-05-06 13:33 50.67412 4.85317 32873 ft 486 kts 108°
2026-05-06 13:34 50.65453 4.95523 32873 ft 487 kts 106°
2026-05-06 13:34 50.63822 5.05809 32881 ft 487 kts 105°
2026-05-06 13:35 50.62464 5.14418 32875 ft 487 kts 105°
2026-05-06 13:35 50.60644 5.25587 32884 ft 487 kts 106°
2026-05-06 13:36 50.58934 5.35920 32883 ft 488 kts 106°
2026-05-06 13:36 50.57227 5.46175 32882 ft 488 kts 106°
2026-05-06 13:37 50.55497 5.56503 32877 ft 489 kts 106°
2026-05-06 13:37 50.53758 5.66828 32863 ft 489 kts 106°
2026-05-06 13:38 50.52007 5.77165 32854 ft 489 kts 106°
2026-05-06 13:38 50.50257 5.87431 32840 ft 490 kts 106°
2026-05-06 13:39 50.48485 5.97764 32826 ft 491 kts 107°
2026-05-06 13:39 50.46700 6.08117 32829 ft 491 kts 107°
2026-05-06 13:40 50.44611 6.20146 32818 ft 492 kts 107°
2026-05-06 13:40 50.43095 6.28829 32813 ft 493 kts 107°
2026-05-06 13:41 50.41479 6.39194 32805 ft 495 kts 100°
2026-05-06 13:41 50.40680 6.49938 32802 ft 496 kts 98°
2026-05-06 13:42 50.39864 6.60670 32798 ft 496 kts 98°
2026-05-06 13:42 50.39029 6.71398 32797 ft 496 kts 99°
2026-05-06 13:43 50.38189 6.82054 32796 ft 496 kts 99°
2026-05-06 13:43 50.37335 6.92777 32799 ft 497 kts 99°
2026-05-06 13:44 50.36468 7.03533 32799 ft 498 kts 99°
2026-05-06 13:44 50.35591 7.14296 32798 ft 499 kts 99°
2026-05-06 13:45 50.34707 7.25009 32799 ft 500 kts 99°
2026-05-06 13:45 50.33352 7.41226 32807 ft 502 kts 100°
2026-05-06 13:46 50.32433 7.52055 32806 ft 502 kts 100°
2026-05-06 13:46 50.31502 7.62893 32805 ft 503 kts 100°
2026-05-06 13:47 50.30562 7.73727 32800 ft 503 kts 101°
2026-05-06 13:47 50.29611 7.84566 32801 ft 503 kts 101°
2026-05-06 13:48 50.28635 7.95334 32798 ft 502 kts 102°
2026-05-06 13:48 50.27449 8.06082 32794 ft 502 kts 103°
2026-05-06 13:49 50.26252 8.16823 32785 ft 501 kts 103°
2026-05-06 13:49 50.25070 8.27546 32783 ft 501 kts 103°
2026-05-06 13:50 50.23883 8.38263 32781 ft 501 kts 103°
2026-05-06 13:50 50.22693 8.48915 32771 ft 501 kts 103°
2026-05-06 13:51 50.21488 8.59603 32770 ft 500 kts 103°
2026-05-06 13:51 50.20271 8.70302 32767 ft 500 kts 103°
2026-05-06 13:52 50.19047 8.80981 32763 ft 500 kts 104°
2026-05-06 13:52 50.17810 8.91673 32759 ft 500 kts 104°
2026-05-06 13:53 50.16562 9.02363 32753 ft 501 kts 104°
2026-05-06 13:53 50.15314 9.12973 32751 ft 501 kts 104°
2026-05-06 13:54 50.14045 9.23671 32751 ft 502 kts 104°
2026-05-06 13:54 50.12766 9.34365 32750 ft 502 kts 104°
2026-05-06 13:55 50.11477 9.45063 32749 ft 502 kts 104°
2026-05-06 13:55 50.10179 9.55763 32739 ft 503 kts 104°
2026-05-06 13:56 50.08874 9.66378 32743 ft 503 kts 105°
2026-05-06 13:56 50.07550 9.77104 32734 ft 504 kts 105°
2026-05-06 13:57 50.06216 9.87816 32745 ft 505 kts 105°
2026-05-06 13:57 50.04871 9.98534 32753 ft 505 kts 105°
2026-05-06 13:58 50.03523 10.09192 32748 ft 505 kts 105°
2026-05-06 13:58 50.02157 10.19913 32748 ft 506 kts 106°
2026-05-06 13:59 50.00775 10.30634 32756 ft 506 kts 107°
2026-05-06 13:59 49.99184 10.41285 32766 ft 505 kts 108°
2026-05-06 14:00 49.97563 10.51917 32768 ft 506 kts 108°
2026-05-06 14:00 49.95964 10.62567 32764 ft 507 kts 108°
2026-05-06 14:01 49.94372 10.73162 32768 ft 508 kts 108°
2026-05-06 14:01 49.92748 10.83844 32761 ft 508 kts 108°
2026-05-06 14:02 49.91111 10.94527 32767 ft 509 kts 109°
2026-05-06 14:02 49.89464 11.05213 32776 ft 510 kts 109°
2026-05-06 14:03 49.87815 11.15833 32767 ft 511 kts 109°
2026-05-06 14:03 49.86144 11.26531 32773 ft 511 kts 109°
2026-05-06 14:04 49.84460 11.37231 32764 ft 511 kts 109°
2026-05-06 14:04 49.82764 11.47939 32765 ft 512 kts 109°
2026-05-06 14:05 49.81070 11.58567 32771 ft 512 kts 109°
2026-05-06 14:05 49.79355 11.69264 32768 ft 512 kts 109°
2026-05-06 14:06 49.77628 11.79965 32760 ft 512 kts 109°
2026-05-06 14:06 49.75891 11.90654 32748 ft 513 kts 109°
2026-05-06 14:07 49.74141 12.01362 32750 ft 513 kts 109°
2026-05-06 14:07 49.72392 12.11996 32749 ft 514 kts 110°
2026-05-06 14:08 49.70617 12.22707 32753 ft 515 kts 110°
2026-05-06 14:08 49.68832 12.33421 32756 ft 515 kts 110°
2026-05-06 14:09 49.67036 12.44137 32760 ft 516 kts 110°
2026-05-06 14:09 49.65236 12.54805 32769 ft 517 kts 110°
2026-05-06 14:10 49.63413 12.65545 32766 ft 518 kts 110°
2026-05-06 14:10 49.61577 12.76295 32771 ft 518 kts 110°
2026-05-06 14:11 49.59730 12.87039 32775 ft 519 kts 110°
2026-05-06 14:11 49.57873 12.97778 32773 ft 519 kts 110°
2026-05-06 14:12 49.56016 13.08450 32773 ft 519 kts 111°
2026-05-06 14:12 49.54138 13.19177 32771 ft 519 kts 111°
2026-05-06 14:13 49.52248 13.29911 32764 ft 520 kts 111°
2026-05-06 14:13 49.50347 13.40641 32763 ft 520 kts 111°
2026-05-06 14:14 49.48435 13.51372 32760 ft 521 kts 111°
2026-05-06 14:14 49.46523 13.62035 32772 ft 521 kts 111°
2026-05-06 14:15 49.44586 13.72768 32755 ft 521 kts 111°
2026-05-06 14:15 49.42640 13.83500 32751 ft 522 kts 111°
2026-05-06 14:16 49.40680 13.94243 32773 ft 523 kts 111°
2026-05-06 14:16 49.38707 14.04994 32771 ft 523 kts 111°
2026-05-06 14:17 49.36737 14.15664 32773 ft 524 kts 111°
2026-05-06 14:17 49.34742 14.26404 32774 ft 524 kts 111°
2026-05-06 14:18 49.32734 14.37155 32767 ft 525 kts 111°
2026-05-06 14:18 49.30714 14.47907 32762 ft 525 kts 112°
2026-05-06 14:19 49.28699 14.58575 32760 ft 525 kts 112°
2026-05-06 14:19 49.26657 14.69315 32755 ft 526 kts 112°
2026-05-06 14:20 49.24605 14.80056 32760 ft 526 kts 112°
2026-05-06 14:20 49.22541 14.90797 32755 ft 526 kts 112°
2026-05-06 14:21 49.20478 15.01467 32761 ft 526 kts 112°
2026-05-06 14:21 49.18393 15.12195 32756 ft 526 kts 112°
2026-05-06 14:22 49.16298 15.22915 32774 ft 526 kts 112°
2026-05-06 14:22 49.14194 15.33619 32772 ft 526 kts 112°
2026-05-06 14:23 49.12094 15.44246 32763 ft 526 kts 112°
2026-05-06 14:23 49.09969 15.54939 32762 ft 527 kts 112°
2026-05-06 14:24 49.07830 15.65644 32768 ft 527 kts 112°
2026-05-06 14:24 49.05682 15.76337 32774 ft 528 kts 112°
2026-05-06 14:25 49.03535 15.86960 32781 ft 528 kts 112°
2026-05-06 14:25 49.01366 15.97642 32790 ft 528 kts 112°
2026-05-06 14:26 48.99185 16.08322 32787 ft 528 kts 112°
2026-05-06 14:26 48.96993 16.18996 32787 ft 528 kts 112°
2026-05-06 14:27 48.94792 16.29663 32783 ft 528 kts 112°
2026-05-06 14:27 48.92596 16.40244 32777 ft 528 kts 112°
2026-05-06 14:28 48.90376 16.50886 32778 ft 528 kts 112°
2026-05-06 14:28 48.88146 16.61517 32779 ft 528 kts 112°
2026-05-06 14:29 48.85922 16.72068 32780 ft 528 kts 112°
2026-05-06 14:29 48.83672 16.82689 32779 ft 528 kts 112°
2026-05-06 14:30 48.81419 16.93300 32781 ft 529 kts 112°
2026-05-06 14:30 48.79002 17.03814 32789 ft 524 kts 119°
2026-05-06 14:31 48.75283 17.13161 32787 ft 513 kts 134°
2026-05-06 14:31 48.70618 17.21234 33233 ft 515 kts 137°
2026-05-06 14:32 48.68262 17.25347 33598 ft 517 kts 137°
2026-05-06 14:32 48.65905 17.29463 33935 ft 518 kts 137°
2026-05-06 14:32 48.63555 17.33560 34376 ft 515 kts 136°
2026-05-06 14:32 48.61205 17.37642 34704 ft 514 kts 136°
2026-05-06 14:33 48.58866 17.41697 34807 ft 510 kts 136°
2026-05-06 14:33 48.56532 17.45731 34812 ft 509 kts 136°
2026-05-06 14:33 48.51889 17.53729 34817 ft 511 kts 136°
2026-05-06 14:34 48.47209 17.61773 34816 ft 511 kts 136°
2026-05-06 14:34 48.42515 17.69818 34810 ft 511 kts 136°
2026-05-06 14:35 48.37815 17.77847 34808 ft 511 kts 136°
2026-05-06 14:35 48.33145 17.85799 34806 ft 511 kts 136°
2026-05-06 14:36 48.28435 17.93795 34824 ft 512 kts 136°
2026-05-06 14:36 48.23713 18.01790 34830 ft 512 kts 136°
2026-05-06 14:37 48.18987 18.09767 34831 ft 512 kts 136°
2026-05-06 14:37 48.14255 18.17730 34840 ft 512 kts 136°
2026-05-06 14:38 48.09547 18.25629 34839 ft 512 kts 136°
2026-05-06 14:38 48.04803 18.33564 34846 ft 512 kts 136°
2026-05-06 14:39 48.00053 18.41486 34854 ft 512 kts 136°
2026-05-06 14:39 47.95287 18.49410 34863 ft 512 kts 136°
2026-05-06 14:40 47.90526 18.57303 34863 ft 512 kts 136°
2026-05-06 14:40 47.85789 18.65133 34869 ft 512 kts 136°
2026-05-06 14:41 47.81014 18.73005 34869 ft 512 kts 136°
2026-05-06 14:41 47.76191 18.80787 34876 ft 512 kts 137°
2026-05-06 14:42 47.71358 18.88474 34878 ft 512 kts 137°
2026-05-06 14:42 47.66505 18.96201 34885 ft 512 kts 137°
2026-05-06 14:43 47.61645 19.03922 34886 ft 512 kts 137°
2026-05-06 14:43 47.56782 19.11630 34882 ft 512 kts 137°
2026-05-06 14:44 47.51942 19.19278 34881 ft 512 kts 137°
2026-05-06 14:45 47.44625 19.30795 34879 ft 513 kts 137°
2026-05-06 14:45 47.39738 19.38459 34884 ft 513 kts 137°
2026-05-06 14:46 47.34839 19.46120 34883 ft 513 kts 137°
2026-05-06 14:46 47.29937 19.53765 34890 ft 513 kts 137°
2026-05-06 14:47 47.25060 19.61348 34893 ft 513 kts 137°
2026-05-06 14:47 47.20141 19.68975 34898 ft 514 kts 137°
2026-05-06 14:48 47.15216 19.76589 34901 ft 514 kts 137°
2026-05-06 14:48 47.10289 19.84183 34904 ft 514 kts 137°
2026-05-06 14:49 47.05384 19.91722 34900 ft 514 kts 137°
2026-05-06 14:49 47.00440 19.99302 34901 ft 515 kts 137°
2026-05-06 14:50 46.95487 20.06871 34905 ft 515 kts 137°
2026-05-06 14:50 46.90524 20.14435 34903 ft 515 kts 137°
2026-05-06 14:51 46.85589 20.21935 34906 ft 515 kts 137°
2026-05-06 14:51 46.80610 20.29479 34905 ft 516 kts 137°
2026-05-06 14:52 46.75623 20.37015 34903 ft 516 kts 137°
2026-05-06 14:52 46.70630 20.44539 34922 ft 517 kts 137°
2026-05-06 14:53 46.65621 20.52065 34924 ft 517 kts 137°
2026-05-06 14:53 46.60646 20.59519 34924 ft 517 kts 137°
2026-05-06 14:54 46.55632 20.67010 34914 ft 517 kts 137°
2026-05-06 14:54 46.50603 20.74502 34913 ft 518 kts 137°
2026-05-06 14:55 46.45572 20.81977 34919 ft 518 kts 137°
2026-05-06 14:55 46.40563 20.89398 34914 ft 518 kts 137°
2026-05-06 14:56 46.35514 20.96855 34930 ft 519 kts 137°
2026-05-06 14:56 46.30450 21.04319 34936 ft 519 kts 137°
2026-05-06 14:57 46.25991 21.12558 34938 ft 525 kts 123°
2026-05-06 14:57 46.22824 21.21996 34937 ft 527 kts 114°
2026-05-06 14:58 46.19945 21.31728 34942 ft 527 kts 114°
2026-05-06 14:58 46.17051 21.41434 34943 ft 527 kts 114°
2026-05-06 14:59 46.14152 21.51132 34948 ft 526 kts 114°
2026-05-06 14:59 46.11246 21.60812 34950 ft 526 kts 114°
2026-05-06 15:00 46.08348 21.70413 34951 ft 525 kts 114°
2026-05-06 15:00 46.05428 21.80044 34952 ft 525 kts 114°
2026-05-06 15:01 46.02501 21.89660 34947 ft 524 kts 114°
2026-05-06 15:01 45.99571 21.99252 34948 ft 524 kts 114°
2026-05-06 15:02 45.96652 22.08769 34943 ft 524 kts 114°
2026-05-06 15:02 45.93709 22.18327 34944 ft 523 kts 114°
2026-05-06 15:03 45.90755 22.27888 34951 ft 523 kts 114°
2026-05-06 15:03 45.87796 22.37427 34960 ft 523 kts 114°
2026-05-06 15:04 45.84855 22.46874 34958 ft 522 kts 115°
2026-05-06 15:04 45.81884 22.56383 34958 ft 522 kts 115°
2026-05-06 15:05 45.78911 22.65863 34962 ft 521 kts 115°
2026-05-06 15:05 45.75930 22.75330 34948 ft 521 kts 115°
2026-05-06 15:06 45.72945 22.84780 34955 ft 520 kts 115°
2026-05-06 15:06 45.69973 22.94149 34950 ft 520 kts 115°
2026-05-06 15:07 45.66978 23.03559 34952 ft 520 kts 115°
2026-05-06 15:07 45.63975 23.12963 34956 ft 520 kts 115°
2026-05-06 15:08 45.60967 23.22342 34964 ft 519 kts 115°
2026-05-06 15:08 45.57951 23.31714 34970 ft 519 kts 115°
2026-05-06 15:09 45.54948 23.41013 34974 ft 519 kts 115°
2026-05-06 15:09 45.51922 23.50353 34976 ft 519 kts 115°
2026-05-06 15:10 45.48886 23.59687 34981 ft 519 kts 115°
2026-05-06 15:10 45.45844 23.69007 34981 ft 519 kts 115°
2026-05-06 15:11 45.42794 23.78316 34983 ft 519 kts 115°
2026-05-06 15:11 45.39758 23.87552 34984 ft 519 kts 115°
2026-05-06 15:12 45.36693 23.96840 34979 ft 519 kts 115°
2026-05-06 15:12 45.33616 24.06134 34993 ft 520 kts 115°
2026-05-06 15:13 45.30552 24.15360 34987 ft 520 kts 115°
2026-05-06 15:13 45.27455 24.24648 34983 ft 520 kts 115°
2026-05-06 15:14 45.24354 24.33915 34976 ft 519 kts 115°
2026-05-06 15:14 45.21251 24.43156 34976 ft 520 kts 115°
2026-05-06 15:15 45.18132 24.52413 34975 ft 520 kts 115°
2026-05-06 15:15 45.15029 24.61589 34978 ft 520 kts 115°
2026-05-06 15:16 45.11896 24.70824 34983 ft 521 kts 115°
2026-05-06 15:16 45.08751 24.80061 34982 ft 521 kts 114°
2026-05-06 15:17 45.05597 24.89291 34986 ft 521 kts 114°
2026-05-06 15:17 45.02457 24.98451 34989 ft 521 kts 114°
2026-05-06 15:18 44.99289 25.07661 34989 ft 521 kts 114°
2026-05-06 15:18 44.96112 25.16864 34988 ft 522 kts 114°
2026-05-06 15:19 44.92921 25.26074 34988 ft 522 kts 114°
2026-05-06 15:19 44.89728 25.35261 34987 ft 522 kts 114°
2026-05-06 15:20 44.86547 25.44382 34987 ft 522 kts 114°
2026-05-06 15:20 44.83339 25.53549 34993 ft 522 kts 114°
2026-05-06 15:21 44.80122 25.62711 34991 ft 522 kts 114°
2026-05-06 15:21 44.76902 25.71851 34994 ft 521 kts 114°
2026-05-06 15:22 44.73693 25.80929 35007 ft 521 kts 114°
2026-05-06 15:22 44.70459 25.90046 35018 ft 521 kts 114°
2026-05-06 15:23 44.67221 25.99144 35025 ft 521 kts 114°
2026-05-06 15:23 44.63975 26.08234 35026 ft 520 kts 114°
2026-05-06 15:24 44.60728 26.17296 35013 ft 520 kts 114°
2026-05-06 15:24 44.57498 26.26282 35015 ft 519 kts 114°
2026-05-06 15:25 44.54241 26.35313 35013 ft 518 kts 114°
2026-05-06 15:25 44.50982 26.44319 35004 ft 518 kts 114°
2026-05-06 15:26 44.47724 26.53294 35007 ft 517 kts 115°
2026-05-06 15:26 44.44479 26.62203 35018 ft 516 kts 115°
2026-05-06 15:27 44.41211 26.71145 35017 ft 516 kts 115°
2026-05-06 15:27 44.37939 26.80071 35024 ft 515 kts 115°
2026-05-06 15:28 44.34665 26.88974 35021 ft 515 kts 115°
2026-05-06 15:28 44.31410 26.97797 35020 ft 514 kts 115°
2026-05-06 15:29 44.28128 27.06662 35023 ft 514 kts 115°
2026-05-06 15:29 44.24846 27.15501 35026 ft 513 kts 115°
2026-05-06 15:30 44.21555 27.24336 35027 ft 513 kts 115°
2026-05-06 15:30 44.18262 27.33147 35030 ft 513 kts 115°
2026-05-06 15:31 44.14980 27.41901 35033 ft 513 kts 115°
2026-05-06 15:31 44.11673 27.50694 35036 ft 513 kts 115°
2026-05-06 15:32 44.06693 27.63884 35043 ft 513 kts 115°
2026-05-06 15:32 44.03388 27.72605 35050 ft 513 kts 115°
2026-05-06 15:33 44.00057 27.81364 35051 ft 513 kts 115°
2026-05-06 15:33 43.96717 27.90119 35052 ft 513 kts 115°
2026-05-06 15:34 43.93375 27.98857 35055 ft 513 kts 115°
2026-05-06 15:34 43.90046 28.07530 35058 ft 512 kts 115°
2026-05-06 15:35 43.86696 28.16230 35064 ft 512 kts 115°
2026-05-06 15:35 43.83338 28.24932 35066 ft 512 kts 115°
2026-05-06 15:36 43.79981 28.33616 35071 ft 511 kts 115°
2026-05-06 15:36 43.76644 28.42224 35079 ft 511 kts 115°
2026-05-06 15:37 43.73218 28.50827 35076 ft 511 kts 118°
2026-05-06 15:37 43.69378 28.59105 35089 ft 511 kts 120°
2026-05-06 15:38 43.65579 28.67393 35094 ft 510 kts 120°
2026-05-06 15:38 43.61774 28.75655 35097 ft 510 kts 120°
2026-05-06 15:39 43.57985 28.83835 35099 ft 509 kts 120°
2026-05-06 15:39 43.54162 28.92056 35103 ft 509 kts 120°
2026-05-06 15:40 43.50342 29.00248 35102 ft 508 kts 120°
2026-05-06 15:40 43.46520 29.08423 35100 ft 508 kts 120°
2026-05-06 15:41 43.42719 29.16530 35097 ft 507 kts 121°
2026-05-06 15:41 43.38887 29.24680 35099 ft 507 kts 121°
2026-05-06 15:42 43.35049 29.32820 35097 ft 507 kts 121°
2026-05-06 15:42 43.31236 29.40887 35099 ft 507 kts 121°
2026-05-06 15:43 43.27388 29.49003 35104 ft 507 kts 121°
2026-05-06 15:43 43.23535 29.57108 35101 ft 507 kts 121°
2026-05-06 15:44 43.19670 29.65216 35097 ft 508 kts 121°
2026-05-06 15:44 43.15826 29.73257 35095 ft 508 kts 121°
2026-05-06 15:45 43.11946 29.81352 35103 ft 508 kts 121°
2026-05-06 15:45 43.08062 29.89434 35109 ft 509 kts 121°
2026-05-06 15:46 43.04165 29.97520 35118 ft 509 kts 121°
2026-05-06 15:46 43.00290 30.05539 35116 ft 509 kts 121°
2026-05-06 15:47 42.96384 30.13599 35098 ft 509 kts 121°
2026-05-06 15:47 42.92468 30.21659 35097 ft 510 kts 121°
2026-05-06 15:48 42.89208 30.28352 35105 ft 509 kts 121°
2026-05-06 15:48 42.84618 30.37750 35106 ft 510 kts 121°
2026-05-06 15:49 42.80708 30.45734 35106 ft 510 kts 121°
2026-05-06 15:49 42.76767 30.53757 35104 ft 510 kts 121°
2026-05-06 15:50 42.73911 30.60727 35104 ft 506 kts 110°
2026-05-06 15:50 42.71344 30.71268 35109 ft 502 kts 103°
2026-05-06 15:51 42.69377 30.80316 35111 ft 502 kts 103°
2026-05-06 15:51 42.67710 30.87939 35110 ft 502 kts 103°
2026-05-06 15:52 42.65733 30.96966 35108 ft 502 kts 103°
2026-05-06 15:52 42.63732 31.06044 35106 ft 501 kts 103°
2026-05-06 15:53 42.61399 31.16572 35099 ft 501 kts 103°
2026-05-06 15:53 42.59722 31.24107 35101 ft 501 kts 103°
2026-05-06 15:54 42.57701 31.33152 35104 ft 501 kts 103°
2026-05-06 15:54 42.55671 31.42203 35105 ft 501 kts 103°
2026-05-06 15:55 42.53632 31.51252 35105 ft 502 kts 104°
2026-05-06 15:55 42.51587 31.60293 35105 ft 502 kts 104°
2026-05-06 15:56 42.49545 31.69282 35108 ft 502 kts 104°
2026-05-06 15:56 42.47484 31.78318 35109 ft 502 kts 104°
2026-05-06 15:57 42.45414 31.87357 35107 ft 503 kts 104°
2026-05-06 15:57 42.42996 31.97868 35112 ft 503 kts 104°
2026-05-06 15:58 42.41261 32.05379 35113 ft 503 kts 104°
2026-05-06 15:58 42.39169 32.14406 35100 ft 503 kts 104°
2026-05-06 15:59 42.37070 32.23422 35101 ft 503 kts 104°
2026-05-06 15:59 42.34962 32.32442 35108 ft 503 kts 104°
2026-05-06 16:00 42.32863 32.41388 35110 ft 503 kts 104°
2026-05-06 16:00 42.30743 32.50386 35107 ft 502 kts 104°
2026-05-06 16:01 42.28618 32.59368 35109 ft 502 kts 105°
2026-05-06 16:01 42.26485 32.68350 35111 ft 502 kts 105°
2026-05-06 16:02 42.24347 32.77318 35115 ft 502 kts 105°
2026-05-06 16:02 42.22217 32.86219 35114 ft 502 kts 105°
2026-05-06 16:03 42.20066 32.95170 35115 ft 501 kts 105°
2026-05-06 16:03 42.17911 33.04107 35112 ft 501 kts 105°
2026-05-06 16:04 42.15750 33.13031 35115 ft 501 kts 105°
2026-05-06 16:04 42.13596 33.21890 35114 ft 500 kts 106°
2026-05-06 16:05 42.11423 33.30797 35110 ft 500 kts 106°
2026-05-06 16:05 42.09246 33.39680 35113 ft 500 kts 106°
2026-05-06 16:06 42.07060 33.48568 35112 ft 500 kts 106°
2026-05-06 16:06 42.04870 33.57442 35112 ft 500 kts 106°
2026-05-06 16:07 42.02686 33.66258 35110 ft 500 kts 106°
2026-05-06 16:07 42.00481 33.75120 35113 ft 500 kts 106°
2026-05-06 16:08 41.98266 33.83993 35113 ft 500 kts 106°
2026-05-06 16:08 41.96045 33.92854 35117 ft 501 kts 106°
2026-05-06 16:09 41.93828 34.01666 35122 ft 501 kts 107°
2026-05-06 16:09 41.91589 34.10531 35118 ft 502 kts 107°
2026-05-06 16:10 41.89342 34.19396 35120 ft 502 kts 107°
2026-05-06 16:10 41.87088 34.28256 35115 ft 502 kts 107°
2026-05-06 16:11 41.84828 34.37108 35116 ft 502 kts 107°
2026-05-06 16:11 41.82577 34.45894 35115 ft 501 kts 107°
2026-05-06 16:12 41.80302 34.54735 35111 ft 502 kts 107°
2026-05-06 16:12 41.78022 34.63565 35108 ft 502 kts 107°
2026-05-06 16:13 41.75734 34.72396 35109 ft 502 kts 107°
2026-05-06 16:13 41.73456 34.81156 35109 ft 501 kts 107°
2026-05-06 16:14 41.71155 34.89968 35114 ft 501 kts 107°
2026-05-06 16:14 41.68850 34.98768 35115 ft 501 kts 108°
2026-05-06 16:15 41.66533 35.07578 35108 ft 501 kts 108°
2026-05-06 16:15 41.64213 35.16369 35113 ft 501 kts 108°
2026-05-06 16:16 41.61903 35.25095 35115 ft 501 kts 108°
2026-05-06 16:16 41.59571 35.33869 35115 ft 501 kts 108°
2026-05-06 16:17 41.57232 35.42641 35115 ft 501 kts 108°
2026-05-06 16:17 41.54884 35.51407 35120 ft 501 kts 108°
2026-05-06 16:18 41.52547 35.60108 35117 ft 501 kts 108°
2026-05-06 16:18 41.50188 35.68858 35114 ft 501 kts 108°
2026-05-06 16:19 41.47821 35.77604 35115 ft 501 kts 108°
2026-05-06 16:19 41.45452 35.86333 35119 ft 501 kts 109°
2026-05-06 16:20 41.43094 35.94988 35117 ft 501 kts 109°
2026-05-06 16:20 41.40709 36.03710 35121 ft 501 kts 109°
2026-05-06 16:21 41.38321 36.12416 35127 ft 500 kts 109°
2026-05-06 16:21 41.35924 36.21122 35130 ft 501 kts 109°
2026-05-06 16:22 41.33539 36.29753 35127 ft 500 kts 109°
2026-05-06 16:22 41.31135 36.38440 35132 ft 500 kts 109°
2026-05-06 16:23 41.28729 36.47112 35131 ft 500 kts 110°
2026-05-06 16:23 41.26612 36.55888 35129 ft 499 kts 100°
2026-05-06 16:24 41.25797 36.65027 35126 ft 498 kts 95°
2026-05-06 16:24 41.25137 36.74132 35122 ft 498 kts 95°
2026-05-06 16:25 41.24455 36.83303 35131 ft 499 kts 95°
2026-05-06 16:25 41.23762 36.92481 35134 ft 499 kts 95°
2026-05-06 16:26 41.23062 37.01649 35135 ft 499 kts 96°
2026-05-06 16:26 41.22359 37.10769 35143 ft 500 kts 96°
2026-05-06 16:27 41.21644 37.19945 35142 ft 500 kts 96°
2026-05-06 16:27 41.20945 37.29127 35139 ft 499 kts 96°
2026-05-06 16:28 41.20279 37.38303 35144 ft 499 kts 96°
2026-05-06 16:28 41.19606 37.47407 35145 ft 499 kts 96°
2026-05-06 16:29 41.18917 37.56574 35139 ft 498 kts 96°
2026-05-06 16:29 41.18402 37.65744 35138 ft 498 kts 96°
2026-05-06 16:30 41.17776 37.73333 35145 ft 498 kts 97°
2026-05-06 16:30 41.16829 37.84002 35149 ft 498 kts 97°
2026-05-06 16:31 41.16056 37.93067 35149 ft 497 kts 97°
2026-05-06 16:31 41.15337 38.02191 35153 ft 497 kts 97°
2026-05-06 16:32 41.14608 38.11313 35157 ft 497 kts 97°
2026-05-06 16:32 41.13865 38.20441 35149 ft 498 kts 97°
2026-05-06 16:33 41.13120 38.29500 35156 ft 498 kts 97°
2026-05-06 16:34 41.11989 38.43195 35149 ft 498 kts 97°
2026-05-06 16:34 41.11227 38.52317 35155 ft 498 kts 97°
2026-05-06 16:35 41.10456 38.61450 35157 ft 498 kts 98°
2026-05-06 16:35 41.09671 38.70517 35155 ft 499 kts 98°
2026-05-06 16:36 41.08853 38.79648 35153 ft 499 kts 98°
2026-05-06 16:36 41.08022 38.88773 35149 ft 499 kts 98°
2026-05-06 16:37 41.07187 38.97895 35155 ft 499 kts 98°
2026-05-06 16:37 41.06346 39.07024 35150 ft 499 kts 98°
2026-05-06 16:38 41.05504 39.16083 35152 ft 499 kts 98°
2026-05-06 16:38 41.04668 39.25196 35157 ft 498 kts 98°
2026-05-06 16:39 41.03827 39.34313 35158 ft 498 kts 99°
2026-05-06 16:39 41.02978 39.43413 35156 ft 498 kts 99°
2026-05-06 16:40 41.02125 39.52460 35160 ft 498 kts 99°
2026-05-06 16:40 41.01262 39.61552 35155 ft 498 kts 99°
2026-05-06 16:41 41.00387 39.70680 35156 ft 505 kts 98°
2026-05-06 16:41 40.99043 39.79792 35157 ft 504 kts 108°
2026-05-06 16:42 40.96498 39.88351 35158 ft 503 kts 117°
2026-05-06 16:42 40.93578 39.96750 35157 ft 503 kts 116°
2026-05-06 16:43 40.90673 40.05156 35162 ft 503 kts 116°
2026-05-06 16:43 40.87754 40.13554 35163 ft 503 kts 116°
2026-05-06 16:44 40.84822 40.21960 35172 ft 504 kts 117°
2026-05-06 16:44 40.81904 40.30297 35175 ft 504 kts 117°
2026-05-06 16:45 40.78955 40.38700 35172 ft 504 kts 117°
2026-05-06 16:45 40.76000 40.47088 35166 ft 504 kts 117°
2026-05-06 16:46 40.73042 40.55475 35159 ft 504 kts 117°
2026-05-06 16:46 40.70095 40.63807 35150 ft 505 kts 117°
2026-05-06 16:47 40.67121 40.72185 35143 ft 505 kts 117°
2026-05-06 16:47 40.64138 40.80564 35139 ft 506 kts 117°
2026-05-06 16:48 40.61141 40.88958 35135 ft 507 kts 118°
2026-05-06 16:48 40.58136 40.97348 35125 ft 507 kts 118°
2026-05-06 16:49 40.55144 41.05680 35116 ft 507 kts 118°
2026-05-06 16:49 40.52123 41.14066 35115 ft 508 kts 118°
2026-05-06 16:50 40.49090 41.22462 35112 ft 509 kts 118°
2026-05-06 16:50 40.46047 41.30860 35110 ft 509 kts 119°
2026-05-06 16:51 40.43016 41.39202 35116 ft 510 kts 119°
2026-05-06 16:51 40.39956 41.47601 35114 ft 511 kts 119°
2026-05-06 16:52 40.36882 41.56010 35121 ft 512 kts 119°
2026-05-06 16:52 40.33791 41.64446 35124 ft 513 kts 120°
2026-05-06 16:53 40.30717 41.72809 35136 ft 513 kts 120°
2026-05-06 16:53 40.27617 41.81217 35137 ft 513 kts 120°
2026-05-06 16:54 40.24511 41.89620 35125 ft 512 kts 120°
2026-05-06 16:54 40.21405 41.98000 35120 ft 512 kts 120°
2026-05-06 16:55 40.18291 42.06373 35117 ft 512 kts 120°
2026-05-06 16:55 40.15192 42.14685 35125 ft 512 kts 120°
2026-05-06 16:56 40.12066 42.23047 35119 ft 512 kts 120°
2026-05-06 16:56 40.08934 42.31398 35115 ft 512 kts 121°
2026-05-06 16:57 40.06004 42.39893 35105 ft 517 kts 111°
2026-05-06 16:57 40.04874 42.49168 35090 ft 528 kts 93°
2026-05-06 16:58 40.05409 42.58758 35085 ft 531 kts 88°
2026-05-06 16:58 40.06001 42.68364 35085 ft 531 kts 88°
2026-05-06 16:59 40.06578 42.77969 35084 ft 531 kts 88°
2026-05-06 16:59 40.07145 42.87524 35085 ft 532 kts 89°
2026-05-06 17:00 40.07709 42.97157 35086 ft 532 kts 89°
2026-05-06 17:00 40.08271 43.06795 35088 ft 533 kts 89°
2026-05-06 17:01 40.08826 43.16444 35098 ft 533 kts 89°
2026-05-06 17:01 40.09369 43.26036 35093 ft 534 kts 89°
2026-05-06 17:02 40.09907 43.35698 35083 ft 533 kts 89°
2026-05-06 17:02 40.10435 43.45354 35072 ft 533 kts 89°
2026-05-06 17:03 40.10955 43.55031 35052 ft 534 kts 89°
2026-05-06 17:03 40.11467 43.64701 35036 ft 534 kts 89°
2026-05-06 17:04 40.11797 43.74378 35029 ft 533 kts 92°
2026-05-06 17:04 40.11891 43.83999 35024 ft 534 kts 92°
2026-05-06 17:05 40.12019 43.93703 35025 ft 534 kts 92°
2026-05-06 17:05 40.12165 44.03406 35021 ft 535 kts 92°
2026-05-06 17:06 40.12306 44.13131 35001 ft 536 kts 92°
2026-05-06 17:06 40.12438 44.22810 34999 ft 536 kts 92°
2026-05-06 17:07 40.12562 44.32551 34995 ft 537 kts 92°
2026-05-06 17:07 40.12678 44.42309 34994 ft 537 kts 93°
2026-05-06 17:08 40.12785 44.52010 34989 ft 538 kts 93°
2026-05-06 17:08 40.12886 44.61783 34994 ft 538 kts 93°
2026-05-06 17:09 40.12977 44.71566 35019 ft 539 kts 93°
2026-05-06 17:09 40.13061 44.81363 35030 ft 539 kts 93°
2026-05-06 17:10 40.13137 44.91142 35041 ft 539 kts 93°
2026-05-06 17:10 40.13204 45.00883 35051 ft 539 kts 93°
2026-05-06 17:11 40.13263 45.10678 35048 ft 539 kts 93°
2026-05-06 17:11 40.13313 45.20471 35043 ft 538 kts 94°
2026-05-06 17:12 40.13354 45.30253 35042 ft 538 kts 94°
2026-05-06 17:12 40.13386 45.39972 35044 ft 539 kts 94°
2026-05-06 17:13 40.13411 45.49765 35051 ft 539 kts 94°
2026-05-06 17:13 40.13427 45.59566 35047 ft 540 kts 94°
2026-05-06 17:14 40.13436 45.69373 35054 ft 540 kts 94°
2026-05-06 17:14 40.13435 45.79195 35063 ft 540 kts 94°
2026-05-06 17:15 40.13429 45.88951 35057 ft 540 kts 94°
2026-05-06 17:15 40.13435 45.98769 35070 ft 541 kts 92°
2026-05-06 17:16 40.13750 46.08624 35069 ft 543 kts 91°
2026-05-06 17:16 40.14088 46.18480 35066 ft 543 kts 92°
2026-05-06 17:17 40.14379 46.28351 35064 ft 544 kts 92°
2026-05-06 17:17 40.14649 46.38172 35073 ft 545 kts 92°
2026-05-06 17:18 40.14912 46.48093 35081 ft 547 kts 92°
2026-05-06 17:18 40.15169 46.58047 35089 ft 549 kts 92°
2026-05-06 17:19 40.15416 46.67965 35089 ft 550 kts 92°
2026-05-06 17:19 40.15657 46.77960 35087 ft 551 kts 92°
2026-05-06 17:20 40.15888 46.87977 35083 ft 551 kts 92°
2026-05-06 17:20 40.16112 46.98004 35076 ft 552 kts 92°
2026-05-06 17:21 40.16327 47.08034 35071 ft 553 kts 93°
2026-05-06 17:21 40.16532 47.18016 35067 ft 553 kts 93°
2026-05-06 17:22 40.16731 47.28079 35063 ft 554 kts 93°
2026-05-06 17:22 40.16921 47.38146 35063 ft 554 kts 93°
2026-05-06 17:23 40.17103 47.48218 35056 ft 555 kts 93°
2026-05-06 17:23 40.17277 47.58310 35049 ft 555 kts 93°
2026-05-06 17:24 40.17442 47.68324 35050 ft 555 kts 93°
2026-05-06 17:24 40.17599 47.78431 35045 ft 555 kts 93°
2026-05-06 17:25 40.17747 47.88528 35041 ft 556 kts 93°
2026-05-06 17:25 40.17887 47.98635 35038 ft 556 kts 93°
2026-05-06 17:26 40.18018 48.08739 35035 ft 556 kts 94°
2026-05-06 17:26 40.18139 48.18780 35039 ft 557 kts 94°
2026-05-06 17:27 40.18252 48.28914 35042 ft 557 kts 94°
2026-05-06 17:27 40.18357 48.39045 35036 ft 557 kts 94°
2026-05-06 17:28 40.18453 48.49175 35043 ft 557 kts 94°
2026-05-06 17:28 40.18540 48.59252 35048 ft 558 kts 94°
2026-05-06 17:29 40.18618 48.69392 35049 ft 558 kts 94°
2026-05-06 17:29 40.18687 48.79536 35061 ft 558 kts 94°
2026-05-06 17:30 40.18748 48.89690 35061 ft 559 kts 94°
2026-05-06 17:30 40.18783 48.99784 35062 ft 558 kts 94°
2026-05-06 17:31 40.18809 49.09928 35064 ft 558 kts 94°
2026-05-06 17:31 40.18829 49.20081 35061 ft 558 kts 94°
2026-05-06 17:32 40.18845 49.30234 35061 ft 558 kts 94°
2026-05-06 17:32 40.18885 49.40374 35060 ft 558 kts 94°
2026-05-06 17:33 40.18502 49.50381 35056 ft 550 kts 104°
2026-05-06 17:33 40.16629 49.59949 35058 ft 539 kts 116°
2026-05-06 17:34 40.14178 49.69208 35054 ft 540 kts 115°
2026-05-06 17:34 40.11748 49.78492 35062 ft 540 kts 116°
2026-05-06 17:35 40.09320 49.87699 35062 ft 540 kts 116°
2026-05-06 17:35 40.06862 49.96972 35062 ft 540 kts 116°
2026-05-06 17:36 40.03158 50.10880 35063 ft 541 kts 116°
2026-05-06 17:36 40.00695 50.20087 35072 ft 541 kts 116°
2026-05-06 17:37 39.98210 50.29343 35069 ft 541 kts 116°
2026-05-06 17:37 39.95718 50.38586 35069 ft 541 kts 116°
2026-05-06 17:38 39.93219 50.47823 35064 ft 540 kts 116°
2026-05-06 17:38 39.90730 50.56992 35068 ft 540 kts 116°
2026-05-06 17:39 39.88221 50.66200 35059 ft 539 kts 116°
2026-05-06 17:39 39.85708 50.75388 35062 ft 539 kts 116°
2026-05-06 17:40 39.83189 50.84564 35058 ft 538 kts 116°
2026-05-06 17:40 39.80682 50.93665 35042 ft 538 kts 116°
2026-05-06 17:41 39.78153 51.02813 35056 ft 537 kts 116°
2026-05-06 17:41 39.75621 51.11941 35050 ft 537 kts 116°
2026-05-06 17:42 39.73082 51.21059 35051 ft 536 kts 117°
2026-05-06 17:42 39.70538 51.30165 35047 ft 536 kts 117°
2026-05-06 17:43 39.68005 51.39197 35046 ft 536 kts 117°
2026-05-06 17:43 39.65466 51.48302 35041 ft 539 kts 114°
2026-05-06 17:44 39.63860 51.57890 35041 ft 547 kts 106°
2026-05-06 17:44 39.62517 51.67600 35042 ft 547 kts 106°
2026-05-06 17:45 39.61151 51.77320 35040 ft 547 kts 106°
2026-05-06 17:45 39.59786 51.86950 35042 ft 547 kts 106°
2026-05-06 17:46 39.58399 51.96660 35040 ft 548 kts 107°
2026-05-06 17:46 39.57004 52.06369 35047 ft 548 kts 107°
2026-05-06 17:47 39.55602 52.16072 35038 ft 548 kts 107°
2026-05-06 17:47 39.54199 52.25714 35034 ft 548 kts 107°
2026-05-06 17:48 39.52781 52.35407 35036 ft 548 kts 107°
2026-05-06 17:48 39.51356 52.45092 35033 ft 547 kts 107°
2026-05-06 17:49 39.49923 52.54765 35025 ft 547 kts 107°
2026-05-06 17:49 39.48485 52.64418 35020 ft 546 kts 107°
2026-05-06 17:50 39.47049 52.73998 35020 ft 546 kts 107°
2026-05-06 17:50 39.45597 52.83630 35017 ft 545 kts 107°
2026-05-06 17:51 39.44137 52.93255 35013 ft 545 kts 107°
2026-05-06 17:51 39.42682 53.02797 35011 ft 544 kts 107°
2026-05-06 17:52 39.41210 53.12392 35010 ft 544 kts 108°
2026-05-06 17:52 39.39728 53.21993 35001 ft 544 kts 108°
2026-05-06 17:53 39.38240 53.31581 35002 ft 544 kts 108°
2026-05-06 17:53 39.36743 53.41173 35000 ft 544 kts 108°
2026-05-06 17:54 39.35248 53.50697 34997 ft 545 kts 108°
2026-05-06 17:54 39.33735 53.60282 34991 ft 545 kts 108°
2026-05-06 17:55 39.32213 53.69871 34985 ft 545 kts 108°
2026-05-06 17:55 39.30680 53.79472 34984 ft 546 kts 108°
2026-05-06 17:56 39.29150 53.89002 34985 ft 546 kts 108°
2026-05-06 17:56 39.27601 53.98601 34984 ft 546 kts 108°
2026-05-06 17:57 39.26043 54.08198 34979 ft 547 kts 108°
2026-05-06 17:57 39.24476 54.17800 34972 ft 547 kts 108°
2026-05-06 17:58 39.22913 54.27329 34982 ft 547 kts 108°
2026-05-06 17:58 39.21329 54.36928 34985 ft 547 kts 108°
2026-05-06 17:59 39.19740 54.46511 34981 ft 547 kts 108°
2026-05-06 17:59 39.18146 54.56102 34975 ft 547 kts 108°
2026-05-06 18:00 39.16545 54.65625 34982 ft 547 kts 108°
2026-05-06 18:00 39.14926 54.75201 34982 ft 548 kts 108°
2026-05-06 18:01 39.13299 54.84788 34983 ft 548 kts 108°
2026-05-06 18:01 39.11662 54.94383 34981 ft 548 kts 108°
2026-05-06 18:02 39.10020 55.03964 34989 ft 548 kts 108°
2026-05-06 18:02 39.08379 55.13485 34995 ft 549 kts 108°
2026-05-06 18:03 39.06718 55.23071 34993 ft 549 kts 108°
2026-05-06 18:03 39.05048 55.32659 34994 ft 549 kts 108°
2026-05-06 18:04 39.03371 55.42238 34994 ft 549 kts 108°
2026-05-06 18:04 39.01701 55.51732 34990 ft 548 kts 108°
2026-05-06 18:05 39.00011 55.61289 34999 ft 548 kts 108°
2026-05-06 18:05 38.98317 55.70845 34989 ft 547 kts 108°
2026-05-06 18:06 38.96622 55.80369 34989 ft 547 kts 108°
2026-05-06 18:06 38.94918 55.89890 34983 ft 546 kts 108°
2026-05-06 18:07 38.93219 55.99331 34982 ft 546 kts 108°
2026-05-06 18:07 38.91503 56.08820 34980 ft 546 kts 108°
2026-05-06 18:08 38.89778 56.18311 34978 ft 546 kts 108°
2026-05-06 18:08 38.88049 56.27784 34973 ft 544 kts 108°
2026-05-06 18:09 38.86328 56.37165 34964 ft 544 kts 108°
2026-05-06 18:09 38.84585 56.46605 34964 ft 544 kts 108°
2026-05-06 18:10 38.82834 56.56049 34960 ft 544 kts 108°
2026-05-06 18:10 38.81076 56.65487 34954 ft 544 kts 108°
2026-05-06 18:11 38.79612 56.73314 34943 ft 543 kts 108°
2026-05-06 18:11 38.77555 56.84258 34926 ft 543 kts 108°
2026-05-06 18:12 38.75779 56.93658 34912 ft 543 kts 108°
2026-05-06 18:12 38.73995 57.03056 34903 ft 543 kts 108°
2026-05-06 18:13 38.72206 57.12437 34895 ft 543 kts 108°
2026-05-06 18:13 38.70420 57.21756 34881 ft 543 kts 108°
2026-05-06 18:14 38.68615 57.31137 34878 ft 542 kts 108°
2026-05-06 18:14 38.66804 57.40502 34866 ft 542 kts 108°
2026-05-06 18:15 38.64985 57.49864 34860 ft 542 kts 108°
2026-05-06 18:15 38.63170 57.59162 34853 ft 542 kts 108°
2026-05-06 18:16 38.61048 57.68360 34845 ft 537 kts 116°
2026-05-06 18:16 38.58027 57.77041 34838 ft 535 kts 119°
2026-05-06 18:17 38.54994 57.85726 34832 ft 535 kts 119°
2026-05-06 18:17 38.52472 57.92933 34836 ft 535 kts 119°
2026-05-06 18:18 38.48930 58.03006 34825 ft 535 kts 119°
2026-05-06 18:18 38.45871 58.11671 34820 ft 536 kts 119°
2026-05-06 18:19 38.42805 58.20334 34822 ft 536 kts 119°
2026-05-06 18:19 38.40317 58.27574 34833 ft 539 kts 114°
2026-05-06 18:20 38.37993 58.38332 34825 ft 543 kts 107°
2026-05-06 18:20 38.36445 58.46144 34818 ft 543 kts 108°
2026-05-06 18:21 38.34592 58.55402 34815 ft 543 kts 108°
2026-05-06 18:21 38.32406 58.66274 34812 ft 542 kts 108°
2026-05-06 18:22 38.30847 58.73997 34812 ft 542 kts 108°
2026-05-06 18:22 38.28963 58.83291 34798 ft 542 kts 108°
2026-05-06 18:23 38.26768 58.94067 34796 ft 541 kts 108°
2026-05-06 18:23 38.24870 59.03341 34794 ft 541 kts 108°
2026-05-06 18:24 38.23288 59.11044 34794 ft 542 kts 108°
2026-05-06 18:24 38.21376 59.20313 34786 ft 542 kts 107°
2026-05-06 18:25 38.19144 59.31079 34786 ft 542 kts 107°
2026-05-06 18:25 38.17541 59.38783 34790 ft 543 kts 107°
2026-05-06 18:26 38.15603 59.48056 34791 ft 543 kts 107°
2026-05-06 18:26 38.13657 59.57330 34787 ft 544 kts 107°
2026-05-06 18:27 38.11701 59.66611 34790 ft 544 kts 107°
2026-05-06 18:27 38.09751 59.75824 34787 ft 544 kts 107°
2026-05-06 18:28 38.07781 59.85095 34792 ft 544 kts 107°
2026-05-06 18:28 38.05803 59.94361 34793 ft 544 kts 107°
2026-05-06 18:29 38.03820 60.03612 34794 ft 543 kts 107°
2026-05-06 18:29 38.01830 60.12857 34794 ft 543 kts 107°
2026-05-06 18:30 37.99848 60.22030 34798 ft 542 kts 107°
2026-05-06 18:30 37.97843 60.31229 34795 ft 542 kts 107°
2026-05-06 18:31 37.95834 60.40420 34799 ft 541 kts 107°
2026-05-06 18:31 37.93818 60.49607 34796 ft 540 kts 107°
2026-05-06 18:32 37.91803 60.58756 34798 ft 540 kts 107°
2026-05-06 18:32 37.89793 60.67840 34801 ft 539 kts 107°
2026-05-06 18:33 37.87767 60.76963 34812 ft 538 kts 107°
2026-05-06 18:33 37.85736 60.86069 34807 ft 537 kts 107°
2026-05-06 18:34 37.83699 60.95169 34802 ft 537 kts 107°
2026-05-06 18:34 37.81673 61.04180 34807 ft 536 kts 107°
2026-05-06 18:35 37.79630 61.13232 34803 ft 535 kts 107°
2026-05-06 18:35 37.77584 61.22263 34807 ft 534 kts 107°
2026-05-06 18:36 37.75530 61.31291 34802 ft 534 kts 107°
2026-05-06 18:36 37.73484 61.40252 35058 ft 536 kts 107°
2026-05-06 18:37 37.72450 61.44767 35474 ft 536 kts 107°
2026-05-06 18:37 37.71411 61.49298 35848 ft 536 kts 108°
2026-05-06 18:37 37.70373 61.53810 36228 ft 536 kts 108°
2026-05-06 18:37 37.69330 61.58341 36585 ft 537 kts 108°
2026-05-06 18:38 37.68283 61.62876 36789 ft 541 kts 108°
2026-05-06 18:38 37.67234 61.67413 36807 ft 535 kts 108°
2026-05-06 18:38 37.65153 61.76389 36804 ft 534 kts 108°
2026-05-06 18:39 37.62910 61.85256 36802 ft 533 kts 114°
2026-05-06 18:40 37.57428 61.97299 36801 ft 526 kts 130°
2026-05-06 18:40 37.53051 62.04704 36810 ft 527 kts 129°
2026-05-06 18:41 37.48688 62.12140 36825 ft 528 kts 129°
2026-05-06 18:41 37.44340 62.19521 36841 ft 528 kts 129°
2026-05-06 18:42 37.39961 62.26931 36848 ft 528 kts 129°
2026-05-06 18:42 37.35565 62.34352 36860 ft 528 kts 129°
2026-05-06 18:43 37.31182 62.41734 36845 ft 527 kts 129°
2026-05-06 18:43 37.26818 62.49068 36837 ft 527 kts 130°
2026-05-06 18:44 37.22426 62.56433 36829 ft 527 kts 130°
2026-05-06 18:44 37.18034 62.63782 36830 ft 527 kts 130°
2026-05-06 18:45 37.13635 62.71126 36834 ft 527 kts 130°
2026-05-06 18:45 37.09233 62.78460 36833 ft 527 kts 130°
2026-05-06 18:46 37.04845 62.85753 36833 ft 528 kts 130°
2026-05-06 18:46 37.00422 62.93090 36838 ft 528 kts 130°
2026-05-06 18:47 36.95985 63.00432 36841 ft 529 kts 130°
2026-05-06 18:47 36.91543 63.07768 36848 ft 530 kts 130°
2026-05-06 18:48 36.87120 63.15056 36857 ft 530 kts 130°
2026-05-06 18:48 36.82655 63.22398 36859 ft 531 kts 130°
2026-05-06 18:49 36.78186 63.29732 36880 ft 531 kts 130°
2026-05-06 18:49 36.73713 63.37054 36890 ft 531 kts 130°
2026-05-06 18:50 36.69261 63.44327 36890 ft 531 kts 130°
2026-05-06 18:50 36.64778 63.51635 36889 ft 531 kts 130°
2026-05-06 18:51 36.60295 63.58927 36887 ft 531 kts 130°
2026-05-06 18:51 36.55806 63.66213 36892 ft 530 kts 130°
2026-05-06 18:52 36.51342 63.73443 36897 ft 531 kts 130°
2026-05-06 18:52 36.46841 63.80718 36899 ft 531 kts 130°
2026-05-06 18:53 36.42336 63.87983 36900 ft 531 kts 130°
2026-05-06 18:53 36.37825 63.95241 36905 ft 531 kts 130°
2026-05-06 18:54 36.33336 64.02449 36910 ft 531 kts 130°
2026-05-06 18:54 36.28816 64.09694 36907 ft 532 kts 130°
2026-05-06 18:55 36.24285 64.16939 36911 ft 532 kts 130°
2026-05-06 18:55 36.19745 64.24184 36920 ft 532 kts 129°
2026-05-06 18:56 36.15246 64.31383 36922 ft 532 kts 128°
2026-05-06 18:56 36.10869 64.38779 36923 ft 533 kts 128°
2026-05-06 18:57 36.06508 64.46183 36930 ft 533 kts 128°
2026-05-06 18:57 36.02126 64.53556 36937 ft 533 kts 128°
2026-05-06 18:58 35.97727 64.60925 36946 ft 533 kts 128°
2026-05-06 18:58 35.93353 64.68235 36964 ft 533 kts 128°
2026-05-06 18:59 35.88948 64.75582 36972 ft 533 kts 128°
2026-05-06 18:59 35.84533 64.82930 36998 ft 533 kts 128°
2026-05-06 19:00 35.80117 64.90264 37011 ft 533 kts 128°
2026-05-06 19:00 35.75721 64.97551 37026 ft 534 kts 128°
2026-05-06 19:01 35.71290 65.04878 37041 ft 534 kts 128°
2026-05-06 19:01 35.66851 65.12203 37059 ft 534 kts 128°
2026-05-06 19:02 35.62407 65.19523 37076 ft 535 kts 128°
2026-05-06 19:02 35.57980 65.26798 37098 ft 535 kts 128°
2026-05-06 19:03 35.53513 65.34124 37111 ft 536 kts 128°
2026-05-06 19:03 35.49040 65.41444 37130 ft 536 kts 128°
2026-05-06 19:04 35.44559 65.48763 37146 ft 537 kts 128°
2026-05-06 19:04 35.40103 65.56024 37157 ft 537 kts 128°
2026-05-06 19:05 35.35607 65.63338 37166 ft 537 kts 128°
2026-05-06 19:05 35.31106 65.70641 37169 ft 538 kts 128°
2026-05-06 19:06 35.26597 65.77944 37191 ft 537 kts 128°
2026-05-06 19:06 35.22115 65.85189 37190 ft 538 kts 128°
2026-05-06 19:07 35.17596 65.92476 37182 ft 538 kts 128°
2026-05-06 19:07 35.13073 65.99757 37187 ft 538 kts 128°
2026-05-06 19:08 35.08542 66.07033 37194 ft 538 kts 128°
2026-05-06 19:08 35.04001 66.14309 37199 ft 539 kts 128°
2026-05-06 19:09 34.99485 66.21535 37193 ft 539 kts 128°
2026-05-06 19:09 34.94937 66.28791 37201 ft 538 kts 128°
2026-05-06 19:10 34.90351 66.36001 37181 ft 539 kts 128°
2026-05-06 19:10 34.85783 66.43173 37188 ft 539 kts 128°
2026-05-06 19:11 34.81182 66.50387 37200 ft 541 kts 128°
2026-05-06 19:11 34.76558 66.57634 37211 ft 542 kts 128°
2026-05-06 19:12 34.71933 66.64864 37217 ft 541 kts 128°
2026-05-06 19:12 34.67302 66.72085 37198 ft 541 kts 128°
2026-05-06 19:13 34.62709 66.79235 37192 ft 541 kts 128°
2026-05-06 19:13 34.58085 66.86417 37183 ft 539 kts 128°
2026-05-06 19:14 34.53462 66.93583 37172 ft 539 kts 128°
2026-05-06 19:14 34.48846 67.00717 37158 ft 537 kts 128°
2026-05-06 19:15 34.44226 67.07836 37145 ft 537 kts 128°
2026-05-06 19:15 34.39630 67.14906 37136 ft 538 kts 128°
2026-05-06 19:16 34.34991 67.22028 37135 ft 539 kts 128°
2026-05-06 19:16 34.30332 67.29167 37148 ft 541 kts 128°
2026-05-06 19:17 34.25659 67.36313 37155 ft 543 kts 128°
2026-05-06 19:17 34.20996 67.43432 37164 ft 544 kts 128°
2026-05-06 19:18 34.16287 67.50604 37169 ft 545 kts 128°
2026-05-06 19:18 34.11571 67.57773 37162 ft 545 kts 128°
2026-05-06 19:19 34.06851 67.64935 37165 ft 545 kts 128°
2026-05-06 19:19 34.02158 67.72041 37154 ft 545 kts 128°
2026-05-06 19:20 33.97435 67.79178 37155 ft 544 kts 129°
2026-05-06 19:20 33.92672 67.86267 37133 ft 544 kts 129°
2026-05-06 19:21 33.87901 67.93325 37112 ft 544 kts 129°
2026-05-06 19:21 33.83127 68.00387 37091 ft 544 kts 129°
2026-05-06 19:22 33.78385 68.07393 37071 ft 544 kts 129°
2026-05-06 19:22 33.73607 68.14439 37051 ft 544 kts 129°
2026-05-06 19:23 33.68821 68.21483 37029 ft 545 kts 129°
2026-05-06 19:23 33.64015 68.28542 37014 ft 546 kts 129°
2026-05-06 19:24 33.59239 68.35545 36990 ft 546 kts 129°
2026-05-06 19:24 33.54418 68.42598 36974 ft 547 kts 129°
2026-05-06 19:25 33.49494 68.49556 36959 ft 548 kts 130°
2026-05-06 19:25 33.44524 68.56474 36950 ft 548 kts 130°
2026-05-06 19:26 33.39553 68.63416 36942 ft 549 kts 130°
2026-05-06 19:26 33.34617 68.70309 36943 ft 550 kts 130°
2026-05-06 19:27 33.29633 68.77258 36941 ft 550 kts 130°
2026-05-06 19:27 33.24742 68.84298 36940 ft 550 kts 127°
2026-05-06 19:28 33.20142 68.91607 36939 ft 551 kts 126°
2026-05-06 19:28 33.15537 68.98844 36942 ft 552 kts 127°
2026-05-06 19:29 33.10851 69.06109 36934 ft 552 kts 127°
2026-05-06 19:29 33.06161 69.13355 36933 ft 553 kts 127°
2026-05-06 19:30 33.01459 69.20606 36921 ft 553 kts 127°
2026-05-06 19:30 32.96778 69.27811 36912 ft 553 kts 127°
2026-05-06 19:31 32.92064 69.35051 36904 ft 554 kts 127°
2026-05-06 19:31 32.84975 69.45910 36904 ft 554 kts 127°
2026-05-06 19:32 32.80228 69.53132 36892 ft 554 kts 127°
2026-05-06 19:32 32.75502 69.60308 36885 ft 555 kts 127°
2026-05-06 19:33 32.70746 69.67520 36877 ft 555 kts 127°
2026-05-06 19:33 32.65987 69.74725 36870 ft 554 kts 127°
2026-05-06 19:34 32.61236 69.81899 36861 ft 553 kts 127°
2026-05-06 19:34 32.56474 69.89077 36843 ft 554 kts 127°
2026-05-06 19:35 32.51740 69.96201 36835 ft 553 kts 127°
2026-05-06 19:35 32.46977 70.03356 36812 ft 553 kts 127°
2026-05-06 19:36 32.42212 70.10499 36788 ft 553 kts 128°
2026-05-06 19:36 32.37473 70.17590 36773 ft 553 kts 128°
2026-05-06 19:37 32.32767 70.24778 36752 ft 553 kts 126°
2026-05-06 19:37 32.28117 70.32019 36738 ft 554 kts 126°
2026-05-06 19:38 32.23441 70.39253 36727 ft 554 kts 127°
2026-05-06 19:38 32.18775 70.46438 36722 ft 555 kts 127°
2026-05-06 19:39 32.14073 70.53664 36724 ft 555 kts 127°
2026-05-06 19:39 32.09363 70.60889 36721 ft 556 kts 127°
2026-05-06 19:40 32.04644 70.68114 36719 ft 556 kts 127°
2026-05-06 19:40 31.99954 70.75282 36718 ft 556 kts 127°
2026-05-06 19:41 31.95221 70.82502 36716 ft 557 kts 127°
2026-05-06 19:41 31.90685 70.89886 36712 ft 556 kts 119°
2026-05-06 19:42 31.87052 70.97894 36718 ft 555 kts 115°
2026-05-06 19:42 31.83449 71.05930 36718 ft 555 kts 116°
2026-05-06 19:43 31.79858 71.13897 36723 ft 556 kts 116°
2026-05-06 19:43 31.76234 71.21923 36722 ft 556 kts 116°
2026-05-06 19:44 31.72604 71.29945 36724 ft 556 kts 116°
2026-05-06 19:44 31.68971 71.37958 36719 ft 556 kts 116°
2026-05-06 19:45 31.65354 71.45918 36710 ft 556 kts 116°
2026-05-06 19:45 31.61710 71.53919 36715 ft 556 kts 116°
2026-05-06 19:46 31.58058 71.61921 36722 ft 556 kts 116°
2026-05-06 19:46 31.54399 71.69913 36722 ft 556 kts 116°
2026-05-06 19:47 31.50773 71.77815 36726 ft 556 kts 116°
2026-05-06 19:47 31.47131 71.85735 36729 ft 556 kts 116°
2026-05-06 19:48 31.43459 71.93705 36733 ft 556 kts 116°
2026-05-06 19:48 31.39784 72.01663 36743 ft 556 kts 116°
2026-05-06 19:49 31.36105 72.09616 36734 ft 556 kts 116°
2026-05-06 19:49 31.32444 72.17509 36746 ft 556 kts 116°
2026-05-06 19:50 31.28906 72.25528 36734 ft 553 kts 108°
2026-05-06 19:50 31.27818 72.29808 36735 ft 548 kts 97°
2026-05-06 19:50 31.27393 72.34201 36737 ft 541 kts 86°
2026-05-06 19:51 31.28125 72.42844 36742 ft 533 kts 77°
2026-05-06 19:51 31.29095 72.51379 36749 ft 534 kts 77°
2026-05-06 19:52 31.30051 72.59982 36751 ft 534 kts 77°
2026-05-06 19:52 31.31005 72.68598 36754 ft 534 kts 77°
2026-05-06 19:53 31.31955 72.77218 36752 ft 534 kts 77°
2026-05-06 19:53 31.32900 72.85842 36756 ft 534 kts 77°
2026-05-06 19:54 31.33831 72.94399 36755 ft 534 kts 77°
2026-05-06 19:54 31.34763 73.03010 36753 ft 533 kts 78°
2026-05-06 19:55 31.35689 73.11616 36752 ft 533 kts 78°
2026-05-06 19:55 31.36608 73.20222 36754 ft 532 kts 78°
2026-05-06 19:56 31.37520 73.28808 36755 ft 532 kts 78°
2026-05-06 19:56 31.38420 73.37337 36762 ft 531 kts 78°
2026-05-06 19:57 31.39318 73.45908 36760 ft 531 kts 78°
2026-05-06 19:57 31.40211 73.54483 36757 ft 530 kts 78°
2026-05-06 19:58 31.41090 73.62982 36757 ft 530 kts 78°
2026-05-06 19:58 31.41970 73.71546 36761 ft 529 kts 78°
2026-05-06 19:59 31.42842 73.80097 36744 ft 529 kts 78°
2026-05-06 19:59 31.43706 73.88653 36741 ft 529 kts 78°
2026-05-06 20:00 31.44462 73.97218 36755 ft 532 kts 83°
2026-05-06 20:00 31.44095 74.05851 36749 ft 539 kts 95°
2026-05-06 20:01 31.42582 74.14460 36753 ft 541 kts 99°
2026-05-06 20:01 31.40975 74.23077 36763 ft 541 kts 99°
2026-05-06 20:02 31.39361 74.31689 36756 ft 542 kts 99°
2026-05-06 20:02 31.37746 74.40238 36763 ft 542 kts 99°
2026-05-06 20:03 31.36112 74.48848 36766 ft 542 kts 99°
2026-05-06 20:03 31.34435 74.57446 36773 ft 543 kts 103°
2026-05-06 20:04 31.32321 74.65924 36768 ft 543 kts 104°
2026-05-06 20:04 31.30221 74.74404 36772 ft 543 kts 104°
2026-05-06 20:05 31.28129 74.82823 36773 ft 543 kts 104°
2026-05-06 20:05 31.26017 74.91286 36777 ft 542 kts 104°
2026-05-06 20:06 31.23901 74.99738 36776 ft 542 kts 104°
2026-05-06 20:06 31.21780 75.08187 36754 ft 542 kts 104°
2026-05-06 20:07 31.19652 75.16632 36752 ft 541 kts 104°
2026-05-06 20:07 31.17538 75.25000 36753 ft 541 kts 104°
2026-05-06 20:08 31.15404 75.33423 36750 ft 541 kts 105°
2026-05-06 20:08 31.13264 75.41843 36748 ft 541 kts 105°
2026-05-06 20:09 31.11010 75.50166 36750 ft 542 kts 110°
2026-05-06 20:09 31.08263 75.58353 36750 ft 542 kts 110°
2026-05-06 20:10 31.05536 75.66562 36754 ft 543 kts 110°
2026-05-06 20:10 31.02802 75.74762 36753 ft 543 kts 110°
2026-05-06 20:11 31.00058 75.82964 36757 ft 543 kts 110°
2026-05-06 20:11 30.97323 75.91117 36756 ft 543 kts 110°
2026-05-06 20:12 30.94567 75.99313 36758 ft 543 kts 110°
2026-05-06 20:12 30.91807 76.07502 36758 ft 543 kts 110°
2026-05-06 20:13 30.89040 76.15690 36756 ft 543 kts 110°
2026-05-06 20:13 30.86287 76.23818 36753 ft 543 kts 110°
2026-05-06 20:14 30.83508 76.32001 36757 ft 543 kts 110°
2026-05-06 20:14 30.80728 76.40170 36752 ft 543 kts 111°
2026-05-06 20:15 30.77945 76.48325 36775 ft 542 kts 111°
2026-05-06 20:15 30.75177 76.56418 36785 ft 542 kts 111°
2026-05-06 20:16 30.72388 76.64552 36798 ft 541 kts 111°
2026-05-06 20:16 30.69563 76.72658 36798 ft 541 kts 114°
2026-05-06 20:17 30.65868 76.80255 36796 ft 541 kts 126°
2026-05-06 20:17 30.61369 76.87180 36793 ft 540 kts 128°
2026-05-06 20:18 30.56835 76.94136 36788 ft 540 kts 128°
2026-05-06 20:18 30.52303 77.01082 36782 ft 541 kts 128°
2026-05-06 20:19 30.47752 77.08037 36780 ft 541 kts 128°
2026-05-06 20:19 30.43197 77.14897 36779 ft 540 kts 132°
2026-05-06 20:20 30.37699 77.20741 36780 ft 536 kts 147°
2026-05-06 20:20 30.31252 77.24972 36776 ft 532 kts 156°
2026-05-06 20:21 30.24639 77.28818 36776 ft 532 kts 156°
2026-05-06 20:21 30.18069 77.32655 36779 ft 533 kts 156°
2026-05-06 20:22 30.11450 77.36509 36779 ft 533 kts 156°
2026-05-06 20:22 30.04821 77.40360 36777 ft 533 kts 156°
2026-05-06 20:23 29.98308 77.44471 36774 ft 537 kts 149°
2026-05-06 20:23 29.92370 77.49656 36775 ft 539 kts 144°
2026-05-06 20:24 29.86462 77.54980 36772 ft 539 kts 145°
2026-05-06 20:24 29.80543 77.60285 36775 ft 540 kts 145°
2026-05-06 20:25 29.74613 77.65592 36776 ft 540 kts 145°
2026-05-06 20:25 29.68676 77.70897 36781 ft 541 kts 145°
2026-05-06 20:26 29.62774 77.76164 36778 ft 541 kts 145°
2026-05-06 20:26 29.56819 77.81470 36787 ft 542 kts 146°
2026-05-06 20:27 29.50859 77.86772 36787 ft 542 kts 146°
2026-05-06 20:27 29.44895 77.92070 36787 ft 542 kts 146°
2026-05-06 20:28 29.38970 77.97326 36804 ft 542 kts 146°
2026-05-06 20:28 29.32996 78.02616 36800 ft 542 kts 146°
2026-05-06 20:29 29.27021 78.07899 36801 ft 542 kts 146°
2026-05-06 20:29 29.21052 78.13169 36799 ft 542 kts 146°
2026-05-06 20:30 29.12135 78.21027 36788 ft 542 kts 146°
2026-05-06 20:31 29.06165 78.26279 36787 ft 541 kts 146°
2026-05-06 20:31 29.00193 78.31523 36784 ft 542 kts 146°
2026-05-06 20:32 28.94215 78.36766 36786 ft 542 kts 147°
2026-05-06 20:32 28.88268 78.41973 36782 ft 542 kts 147°
2026-05-06 20:33 28.82281 78.47208 36789 ft 543 kts 147°
2026-05-06 20:33 28.76279 78.52447 36799 ft 544 kts 147°
2026-05-06 20:34 28.70269 78.57687 36803 ft 544 kts 147°
2026-05-06 20:34 28.64251 78.62925 36803 ft 545 kts 147°
2026-05-06 20:35 28.58270 78.68123 36799 ft 545 kts 147°
2026-05-06 20:35 28.52240 78.73358 36800 ft 545 kts 147°
2026-05-06 20:36 28.46276 78.78684 36799 ft 548 kts 142°
2026-05-06 20:36 28.40855 78.84807 36791 ft 550 kts 138°
2026-05-06 20:37 28.35512 78.90922 36784 ft 549 kts 139°
2026-05-06 20:37 28.30120 78.97064 36784 ft 549 kts 139°
2026-05-06 20:38 28.24729 79.03195 36778 ft 548 kts 139°
2026-05-06 20:38 28.19341 79.09313 36778 ft 548 kts 139°
2026-05-06 20:39 28.13992 79.15379 36774 ft 548 kts 139°
2026-05-06 20:39 28.08602 79.21480 36770 ft 548 kts 139°
2026-05-06 20:40 28.03205 79.27582 36783 ft 548 kts 139°
2026-05-06 20:40 27.97812 79.33668 36775 ft 548 kts 139°
2026-05-06 20:41 27.92410 79.39757 36774 ft 548 kts 139°
2026-05-06 20:41 27.87045 79.45795 36781 ft 548 kts 139°
2026-05-06 20:42 27.81643 79.51865 36773 ft 548 kts 139°
2026-05-06 20:42 27.76239 79.57930 36787 ft 547 kts 139°
2026-05-06 20:43 27.70838 79.63980 36789 ft 547 kts 140°
2026-05-06 20:43 27.65814 79.70382 36792 ft 550 kts 134°
2026-05-06 20:44 27.60904 79.76991 36794 ft 549 kts 134°
2026-05-06 20:44 27.55985 79.83578 36796 ft 549 kts 134°
2026-05-06 20:45 27.51063 79.90155 36792 ft 549 kts 134°
2026-05-06 20:45 27.46141 79.96723 36792 ft 548 kts 134°
2026-05-06 20:46 27.41250 80.03239 36797 ft 548 kts 134°
2026-05-06 20:46 27.36326 80.09789 36795 ft 548 kts 134°
2026-05-06 20:47 27.31400 80.16333 36796 ft 548 kts 134°
2026-05-06 20:47 27.26473 80.22867 36800 ft 548 kts 134°
2026-05-06 20:48 27.21576 80.29353 36800 ft 548 kts 135°
2026-05-06 20:48 27.16638 80.35882 36796 ft 548 kts 135°
2026-05-06 20:49 27.11697 80.42406 36809 ft 549 kts 135°
2026-05-06 20:49 27.06749 80.48930 36810 ft 549 kts 135°
2026-05-06 20:50 27.01795 80.55451 36808 ft 549 kts 135°
2026-05-06 20:50 26.96869 80.61928 36813 ft 549 kts 135°
2026-05-06 20:51 26.91908 80.68439 36809 ft 549 kts 135°
2026-05-06 20:51 26.86950 80.74938 36807 ft 549 kts 135°
2026-05-06 20:52 26.82825 80.80337 36803 ft 549 kts 135°
2026-05-06 20:52 26.77051 80.87884 36803 ft 549 kts 135°
2026-05-06 20:53 26.72412 80.94708 36799 ft 552 kts 130°
2026-05-06 20:53 26.68671 81.00480 36802 ft 552 kts 130°
2026-05-06 20:54 26.63391 81.08591 36811 ft 552 kts 130°
2026-05-06 20:54 26.58892 81.15483 36808 ft 552 kts 130°
2026-05-06 20:55 26.54362 81.22410 36807 ft 553 kts 130°
2026-05-06 20:55 26.50586 81.28178 36835 ft 553 kts 130°
2026-05-06 20:56 26.45276 81.36274 36830 ft 553 kts 130°
2026-05-06 20:56 26.40751 81.43164 36824 ft 554 kts 131°
2026-05-06 20:57 26.36937 81.48962 36825 ft 554 kts 131°
2026-05-06 20:57 26.31633 81.57012 36825 ft 554 kts 131°
2026-05-06 20:58 26.27843 81.62758 36820 ft 554 kts 131°
2026-05-06 20:58 26.23273 81.69675 36825 ft 554 kts 131°
2026-05-06 20:59 26.17964 81.77697 36823 ft 553 kts 131°
2026-05-06 20:59 26.13398 81.84585 36823 ft 553 kts 131°
2026-05-06 21:00 26.09599 81.90308 36822 ft 553 kts 131°
2026-05-06 21:00 26.05033 81.97179 36824 ft 552 kts 131°
2026-05-06 21:01 26.00465 82.04042 36822 ft 552 kts 131°
2026-05-06 21:01 25.95894 82.10897 36819 ft 552 kts 131°
2026-05-06 21:02 25.91326 82.17740 36818 ft 551 kts 131°
2026-05-06 21:02 25.86787 82.24528 36823 ft 551 kts 131°
2026-05-06 21:03 25.82212 82.31360 36820 ft 551 kts 131°
2026-05-06 21:03 25.77636 82.38185 36821 ft 551 kts 131°
2026-05-06 21:04 25.73057 82.45002 36835 ft 551 kts 131°
2026-05-06 21:04 25.68507 82.51769 36839 ft 550 kts 131°
2026-05-06 21:05 25.63931 82.58562 36833 ft 550 kts 131°
2026-05-06 21:05 25.59355 82.65346 36829 ft 549 kts 132°
2026-05-06 21:06 25.54780 82.72119 36830 ft 549 kts 132°
2026-05-06 21:06 25.50236 82.78836 36826 ft 548 kts 132°
2026-05-06 21:07 25.45932 82.85824 36822 ft 554 kts 123°
2026-05-06 21:07 25.42821 82.93680 36824 ft 560 kts 113°
2026-05-06 21:08 25.40146 83.01772 36820 ft 560 kts 114°
2026-05-06 21:08 25.37461 83.09795 36823 ft 560 kts 114°
2026-05-06 21:09 25.34749 83.17879 36826 ft 561 kts 114°
2026-05-06 21:09 25.32034 83.25959 36830 ft 561 kts 114°
2026-05-06 21:10 25.29315 83.34037 36830 ft 561 kts 114°
2026-05-06 21:10 25.26610 83.42057 36835 ft 561 kts 114°
2026-05-06 21:11 25.23882 83.50128 36836 ft 561 kts 114°
2026-05-06 21:11 25.21154 83.58184 36840 ft 560 kts 114°
2026-05-06 21:12 25.18420 83.66238 36840 ft 560 kts 114°
2026-05-06 21:12 25.15686 83.74277 36846 ft 559 kts 114°
2026-05-06 21:13 25.12965 83.82261 36846 ft 559 kts 115°
2026-05-06 21:13 25.10222 83.90294 36845 ft 559 kts 115°
2026-05-06 21:14 25.07475 83.98320 36847 ft 559 kts 115°
2026-05-06 21:14 25.04726 84.06340 36847 ft 559 kts 115°
2026-05-06 21:15 25.01970 84.14360 36848 ft 559 kts 115°
2026-05-06 21:15 24.99230 84.22320 36849 ft 559 kts 115°
2026-05-06 21:16 24.96469 84.30324 36851 ft 559 kts 115°
2026-05-06 21:16 24.93703 84.38330 36854 ft 558 kts 115°
2026-05-06 21:17 24.90934 84.46324 36854 ft 558 kts 115°
2026-05-06 21:17 24.88184 84.54251 36850 ft 558 kts 115°
2026-05-06 21:18 24.85410 84.62230 36855 ft 558 kts 115°
2026-05-06 21:18 24.82633 84.70199 36857 ft 557 kts 115°
2026-05-06 21:19 24.79855 84.78159 36855 ft 557 kts 115°
2026-05-06 21:19 24.77074 84.86113 36857 ft 557 kts 115°
2026-05-06 21:20 24.74103 84.93885 36855 ft 551 kts 122°
2026-05-06 21:20 24.70095 85.00990 36851 ft 544 kts 130°
2026-05-06 21:21 24.65838 85.07877 36857 ft 545 kts 129°
2026-05-06 21:21 24.61596 85.14771 36863 ft 544 kts 129°
2026-05-06 21:22 24.57378 85.21606 36890 ft 544 kts 129°
2026-05-06 21:22 24.53126 85.28481 36896 ft 544 kts 129°
2026-05-06 21:23 24.48875 85.35347 36898 ft 543 kts 130°
2026-05-06 21:23 24.44621 85.42205 36898 ft 543 kts 130°
2026-05-06 21:24 24.40372 85.49048 36906 ft 542 kts 130°
2026-05-06 21:24 24.36150 85.55836 36910 ft 542 kts 130°
2026-05-06 21:25 24.31900 85.62661 36918 ft 542 kts 130°
2026-05-06 21:25 24.27651 85.69475 36920 ft 541 kts 130°
2026-05-06 21:26 24.23426 85.76240 36924 ft 541 kts 130°
2026-05-06 21:26 24.19178 85.83034 36929 ft 541 kts 130°
2026-05-06 21:27 24.14923 85.89829 36930 ft 540 kts 130°
2026-05-06 21:27 24.10672 85.96608 36935 ft 540 kts 130°
2026-05-06 21:28 24.06416 86.03386 36940 ft 540 kts 130°
2026-05-06 21:28 24.02190 86.10107 36936 ft 540 kts 130°
2026-05-06 21:29 23.97936 86.16864 36930 ft 539 kts 130°
2026-05-06 21:29 23.93682 86.23612 36929 ft 538 kts 130°
2026-05-06 21:30 23.89456 86.30305 36921 ft 538 kts 130°
2026-05-06 21:30 23.85206 86.37028 36919 ft 538 kts 130°
2026-05-06 21:31 23.80950 86.43753 36912 ft 538 kts 130°
2026-05-06 21:31 23.76984 86.50707 36909 ft 541 kts 126°
2026-05-06 21:32 23.73172 86.57771 36898 ft 540 kts 126°
2026-05-06 21:32 23.67389 86.68237 36893 ft 539 kts 127°
2026-05-06 21:33 23.63499 86.75221 36884 ft 538 kts 127°
2026-05-06 21:33 23.59621 86.82179 36874 ft 537 kts 127°
2026-05-06 21:34 23.55742 86.89125 36872 ft 536 kts 127°
2026-05-06 21:34 23.51887 86.96016 36878 ft 536 kts 127°
2026-05-06 21:35 23.48009 87.02942 36875 ft 535 kts 127°
2026-05-06 21:35 23.44140 87.09857 36872 ft 534 kts 127°
2026-05-06 21:36 23.40270 87.16773 36869 ft 534 kts 127°
2026-05-06 21:36 23.36429 87.23627 36860 ft 534 kts 127°
2026-05-06 21:37 23.32559 87.30522 36854 ft 534 kts 127°
2026-05-06 21:37 23.28684 87.37415 36852 ft 534 kts 127°
2026-05-06 21:38 23.24807 87.44303 36854 ft 534 kts 127°
2026-05-06 21:38 23.20946 87.51151 36847 ft 535 kts 127°
2026-05-06 21:39 23.17057 87.58042 36847 ft 535 kts 127°
2026-05-06 21:39 23.13153 87.64950 36852 ft 536 kts 127°
2026-05-06 21:40 23.09250 87.71846 36852 ft 537 kts 126°
2026-05-06 21:40 23.05363 87.78706 36846 ft 537 kts 126°
2026-05-06 21:41 23.01443 87.85614 36845 ft 537 kts 126°
2026-05-06 21:41 22.97521 87.92517 36846 ft 537 kts 126°
2026-05-06 21:42 22.93597 87.99414 36840 ft 537 kts 126°
2026-05-06 21:42 22.89699 88.06256 36839 ft 537 kts 126°
2026-05-06 21:43 22.85770 88.13142 36837 ft 536 kts 126°
2026-05-06 21:43 22.81847 88.20010 36836 ft 536 kts 126°
2026-05-06 21:44 22.77925 88.26866 36833 ft 535 kts 126°
2026-05-06 21:44 22.74032 88.33663 36832 ft 534 kts 126°
2026-05-06 21:45 22.70114 88.40494 36833 ft 534 kts 126°
2026-05-06 21:45 22.66063 88.47212 36832 ft 530 kts 131°
2026-05-06 21:46 22.61776 88.53698 36829 ft 530 kts 130°
2026-05-06 21:46 22.57534 88.60149 36826 ft 529 kts 130°
2026-05-06 21:47 22.53260 88.66632 36826 ft 529 kts 130°
2026-05-06 21:47 22.48984 88.73108 36823 ft 529 kts 130°
2026-05-06 21:48 22.44711 88.79570 36823 ft 529 kts 130°
2026-05-06 21:48 22.40432 88.86032 36822 ft 528 kts 130°
2026-05-06 21:49 22.36181 88.92446 36824 ft 528 kts 130°
2026-05-06 21:49 22.31900 88.98896 36823 ft 528 kts 130°
2026-05-06 21:50 22.27676 89.05400 36824 ft 530 kts 128°
2026-05-06 21:50 22.23638 89.12052 36826 ft 530 kts 128°
2026-05-06 21:51 22.19608 89.18647 36823 ft 530 kts 128°
2026-05-06 21:51 22.15528 89.25263 36824 ft 529 kts 128°
2026-05-06 21:52 22.11445 89.31866 36824 ft 529 kts 128°
2026-05-06 21:52 22.07359 89.38466 36825 ft 529 kts 128°
2026-05-06 21:53 22.03303 89.45011 36825 ft 528 kts 128°
2026-05-06 21:53 21.99219 89.51593 36822 ft 528 kts 128°
2026-05-06 21:54 21.95135 89.58166 36823 ft 528 kts 128°
2026-05-06 21:54 21.91051 89.64731 36818 ft 528 kts 128°
2026-05-06 21:55 21.86960 89.71301 36819 ft 528 kts 128°
2026-05-06 21:55 21.82898 89.77815 36815 ft 528 kts 128°
2026-05-06 21:56 21.78801 89.84378 36818 ft 528 kts 128°
2026-05-06 21:56 21.74701 89.90939 36818 ft 529 kts 128°
2026-05-06 21:57 21.70595 89.97500 36837 ft 529 kts 128°
2026-05-06 21:57 21.66510 90.04019 36832 ft 529 kts 128°
2026-05-06 21:58 21.62394 90.10582 36837 ft 529 kts 128°
2026-05-06 21:58 21.58279 90.17134 36829 ft 529 kts 128°
2026-05-06 21:59 21.54167 90.23674 36828 ft 528 kts 128°
2026-05-06 21:59 21.50084 90.30160 36826 ft 527 kts 128°
2026-05-06 22:00 21.45976 90.36678 36836 ft 527 kts 128°
2026-05-06 22:00 21.41872 90.43182 36834 ft 526 kts 128°
2026-05-06 22:01 21.37774 90.49668 36827 ft 525 kts 128°
2026-05-06 22:01 21.33675 90.56153 36823 ft 525 kts 128°
2026-05-06 22:02 21.29607 90.62580 36825 ft 524 kts 128°
2026-05-06 22:02 21.25516 90.69042 36829 ft 524 kts 128°
2026-05-06 22:03 21.21423 90.75500 36825 ft 523 kts 128°
2026-05-06 22:03 21.17330 90.81948 36816 ft 523 kts 128°
2026-05-06 22:04 21.13262 90.88351 36820 ft 523 kts 128°
2026-05-06 22:04 21.09168 90.94786 36823 ft 523 kts 128°
2026-05-06 22:05 21.05076 91.01211 36820 ft 523 kts 128°
2026-05-06 22:05 21.00979 91.07636 36819 ft 522 kts 128°
2026-05-06 22:06 20.96880 91.14058 36827 ft 522 kts 128°
2026-05-06 22:06 20.92808 91.20431 36827 ft 522 kts 128°
2026-05-06 22:07 20.88704 91.26844 36827 ft 523 kts 128°
2026-05-06 22:07 20.84592 91.33264 36827 ft 523 kts 128°
2026-05-06 22:08 20.80484 91.39671 36830 ft 523 kts 128°
2026-05-06 22:08 20.76392 91.46045 36829 ft 523 kts 128°
2026-05-06 22:09 20.72277 91.52449 36832 ft 523 kts 128°
2026-05-06 22:09 20.68155 91.58855 36837 ft 523 kts 128°
2026-05-06 22:10 20.64031 91.65258 36835 ft 523 kts 128°
2026-05-06 22:10 20.59905 91.71658 36834 ft 523 kts 128°
2026-05-06 22:11 20.55810 91.78000 36832 ft 523 kts 128°
2026-05-06 22:11 20.51683 91.84387 36834 ft 523 kts 128°
2026-05-06 22:12 20.47555 91.90768 36829 ft 523 kts 128°
2026-05-06 22:12 20.43421 91.97151 36833 ft 523 kts 128°
2026-05-06 22:13 20.39304 92.03470 36832 ft 523 kts 128°
2026-05-06 22:13 20.35114 92.09798 36831 ft 522 kts 128°
2026-05-06 22:14 20.30922 92.16135 36830 ft 523 kts 128°
2026-05-06 22:14 20.26739 92.22462 36831 ft 523 kts 128°
2026-05-06 22:15 20.22553 92.28788 36831 ft 523 kts 128°
2026-05-06 22:15 20.18391 92.35069 36830 ft 523 kts 128°
2026-05-06 22:16 20.14195 92.41396 36830 ft 523 kts 128°
2026-05-06 22:16 20.09998 92.47716 36834 ft 523 kts 128°
2026-05-06 22:17 20.05799 92.54033 36835 ft 523 kts 128°
2026-05-06 22:17 20.01626 92.60305 36836 ft 523 kts 128°
2026-05-06 22:18 19.97423 92.66614 36836 ft 523 kts 128°
2026-05-06 22:18 19.93214 92.72925 36835 ft 523 kts 128°
2026-05-06 22:19 19.89007 92.79228 36835 ft 523 kts 128°
2026-05-06 22:19 19.84803 92.85518 36840 ft 523 kts 128°
2026-05-06 22:20 19.80617 92.91775 36833 ft 523 kts 128°
2026-05-06 22:20 19.76405 92.98066 36834 ft 523 kts 128°
2026-05-06 22:21 19.72194 93.04347 36839 ft 523 kts 128°
2026-05-06 22:21 19.67973 93.10637 36837 ft 522 kts 128°
2026-05-06 22:22 19.63784 93.16873 36832 ft 522 kts 128°
2026-05-06 22:22 19.59566 93.23146 36829 ft 522 kts 128°
2026-05-06 22:23 19.55350 93.29408 36833 ft 522 kts 128°
2026-05-06 22:23 19.51131 93.35669 36848 ft 522 kts 128°
2026-05-06 22:24 19.46913 93.41923 36849 ft 521 kts 128°
2026-05-06 22:24 19.42720 93.48132 36847 ft 521 kts 128°
2026-05-06 22:25 19.38500 93.54376 36847 ft 521 kts 128°
2026-05-06 22:25 19.34277 93.60617 36845 ft 521 kts 128°
2026-05-06 22:26 19.30056 93.66848 36844 ft 521 kts 128°
2026-05-06 22:26 19.25861 93.73035 36840 ft 521 kts 128°
2026-05-06 22:27 19.21635 93.79262 36838 ft 521 kts 128°
2026-05-06 22:27 19.17412 93.85479 36833 ft 520 kts 128°
2026-05-06 22:28 19.13192 93.91683 36841 ft 520 kts 128°
2026-05-06 22:28 19.08972 93.97882 36838 ft 519 kts 128°
2026-05-06 22:29 19.04777 94.04039 36842 ft 519 kts 128°
2026-05-06 22:29 19.00556 94.10226 36846 ft 519 kts 128°
2026-05-06 22:30 18.96331 94.16415 36850 ft 519 kts 128°
2026-05-06 22:30 18.92109 94.22591 36852 ft 519 kts 128°
2026-05-06 22:31 18.87913 94.28726 36856 ft 519 kts 128°
2026-05-06 22:31 18.83687 94.34896 36862 ft 519 kts 128°
2026-05-06 22:32 18.79457 94.41067 36863 ft 518 kts 128°
2026-05-06 22:32 18.75230 94.47228 36870 ft 518 kts 128°
2026-05-06 22:33 18.71029 94.53342 36868 ft 518 kts 128°
2026-05-06 22:33 18.66800 94.59496 36865 ft 518 kts 128°
2026-05-06 22:34 18.62572 94.65640 36865 ft 518 kts 128°
2026-05-06 22:34 18.58343 94.71782 36867 ft 518 kts 128°
2026-05-06 22:35 18.54195 94.77989 36863 ft 518 kts 126°
2026-05-06 22:35 18.50148 94.84212 36866 ft 517 kts 127°
2026-05-06 22:36 18.46062 94.90451 36856 ft 517 kts 127°
2026-05-06 22:36 18.41966 94.96680 36851 ft 517 kts 127°
2026-05-06 22:37 18.37870 95.02899 36845 ft 517 kts 127°
2026-05-06 22:37 18.33772 95.09116 36834 ft 517 kts 127°
2026-05-06 22:38 18.29700 95.15288 36832 ft 516 kts 127°
2026-05-06 22:38 18.25438 95.21360 36828 ft 515 kts 129°
2026-05-06 22:39 18.21116 95.27375 36824 ft 515 kts 129°
2026-05-06 22:39 18.16824 95.33401 36825 ft 515 kts 129°
2026-05-06 22:40 18.12564 95.39396 36824 ft 515 kts 128°
2026-05-06 22:40 18.08279 95.45421 36822 ft 514 kts 128°
2026-05-06 22:41 18.01853 95.54448 36824 ft 514 kts 128°
2026-05-06 22:42 17.97566 95.60462 36828 ft 514 kts 128°
2026-05-06 22:42 17.93316 95.66418 36828 ft 513 kts 128°
2026-05-06 22:43 17.89033 95.72416 36830 ft 513 kts 128°
2026-05-06 22:43 17.84752 95.78406 36828 ft 513 kts 128°
2026-05-06 22:44 17.80474 95.84385 36830 ft 512 kts 128°
2026-05-06 22:44 17.76224 95.90320 36835 ft 512 kts 128°
2026-05-06 22:45 17.71948 95.96287 36836 ft 511 kts 128°
2026-05-06 22:45 17.67673 96.02247 36835 ft 511 kts 128°
2026-05-06 22:46 17.63402 96.08196 36835 ft 511 kts 128°
2026-05-06 22:46 17.59156 96.14104 36833 ft 510 kts 128°
2026-05-06 22:47 17.54888 96.20038 36839 ft 510 kts 128°
2026-05-06 22:47 17.50617 96.25971 36834 ft 509 kts 128°
2026-05-06 22:48 17.46350 96.31893 36836 ft 509 kts 128°
2026-05-06 22:48 17.42112 96.37770 36834 ft 509 kts 128°
2026-05-06 22:49 17.37849 96.43675 36836 ft 508 kts 128°
2026-05-06 22:49 17.33374 96.49377 36832 ft 506 kts 137°
2026-05-06 22:50 17.27886 96.53931 36830 ft 503 kts 150°
2026-05-06 22:50 17.21705 96.57304 36828 ft 501 kts 155°
2026-05-06 22:51 17.15519 96.60561 36827 ft 501 kts 155°
2026-05-06 22:51 17.09300 96.63836 36829 ft 501 kts 155°
2026-05-06 22:52 17.03077 96.67104 36833 ft 500 kts 155°
2026-05-06 22:52 16.96856 96.70366 36836 ft 500 kts 155°
2026-05-06 22:53 16.90676 96.73605 36834 ft 500 kts 155°
2026-05-06 22:53 16.84460 96.76860 36834 ft 500 kts 155°
2026-05-06 22:54 16.78243 96.80113 36831 ft 500 kts 155°
2026-05-06 22:54 16.72036 96.83359 36836 ft 499 kts 155°
2026-05-06 22:55 16.65866 96.86582 36835 ft 499 kts 155°
2026-05-06 22:55 16.59660 96.89823 36834 ft 499 kts 155°
2026-05-06 22:56 16.53449 96.93063 36833 ft 499 kts 155°
2026-05-06 22:56 16.47245 96.96298 36832 ft 498 kts 155°
2026-05-06 22:57 16.41085 96.99507 36837 ft 498 kts 155°
2026-05-06 22:57 16.34887 97.02734 36835 ft 498 kts 155°
2026-05-06 22:58 16.28693 97.05956 36831 ft 498 kts 155°
2026-05-06 22:58 16.22493 97.09179 36836 ft 498 kts 155°
2026-05-06 22:59 16.16336 97.12378 36836 ft 498 kts 155°
2026-05-06 22:59 16.10140 97.15595 36835 ft 498 kts 155°
2026-05-06 23:00 16.03941 97.18811 36828 ft 498 kts 155°
2026-05-06 23:00 15.97748 97.22021 36836 ft 498 kts 155°
2026-05-06 23:01 15.91544 97.25235 36833 ft 498 kts 154°
2026-05-06 23:01 15.85387 97.28422 36838 ft 498 kts 154°
2026-05-06 23:02 15.79188 97.31630 36838 ft 498 kts 154°
2026-05-06 23:02 15.72986 97.34836 36839 ft 498 kts 154°
2026-05-06 23:03 15.66776 97.38045 36844 ft 498 kts 154°
2026-05-06 23:03 15.60610 97.41228 36842 ft 498 kts 154°
2026-05-06 23:04 15.54404 97.44430 36848 ft 498 kts 154°
2026-05-06 23:04 15.48192 97.47633 36846 ft 499 kts 154°
2026-05-06 23:05 15.41983 97.50845 36847 ft 499 kts 154°
2026-05-06 23:05 15.35857 97.54124 36849 ft 499 kts 153°
2026-05-06 23:06 15.29689 97.57428 36850 ft 499 kts 153°
2026-05-06 23:06 15.23507 97.60725 36846 ft 500 kts 153°
2026-05-06 23:07 15.17321 97.64019 36846 ft 500 kts 153°
2026-05-06 23:07 15.11174 97.67289 36852 ft 500 kts 153°
2026-05-06 23:08 15.04985 97.70580 36853 ft 500 kts 153°
2026-05-06 23:08 14.98786 97.73874 36854 ft 501 kts 153°
2026-05-06 23:09 14.92587 97.77166 36858 ft 501 kts 153°
2026-05-06 23:09 14.86429 97.80432 36853 ft 501 kts 153°
2026-05-06 23:10 14.80220 97.83724 36863 ft 502 kts 153°
2026-05-06 23:10 14.74003 97.87017 36857 ft 502 kts 153°
2026-05-06 23:11 14.67794 97.90304 36854 ft 502 kts 153°
2026-05-06 23:11 14.61568 97.93590 36862 ft 502 kts 153°
2026-05-06 23:12 14.55386 97.96846 36864 ft 502 kts 153°
2026-05-06 23:12 14.49163 98.00123 36862 ft 503 kts 153°
2026-05-06 23:13 14.42934 98.03403 36867 ft 503 kts 153°
2026-05-06 23:13 14.36702 98.06681 36864 ft 503 kts 153°
2026-05-06 23:14 14.30509 98.09937 36873 ft 503 kts 153°
2026-05-06 23:14 14.24284 98.13207 36871 ft 502 kts 153°
2026-05-06 23:15 14.18055 98.16478 36877 ft 502 kts 153°
2026-05-06 23:15 14.11823 98.19748 36878 ft 502 kts 153°
2026-05-06 23:16 14.05650 98.22987 36879 ft 502 kts 153°
2026-05-06 23:16 13.99431 98.26254 36878 ft 501 kts 153°
2026-05-06 23:17 13.93215 98.29516 36877 ft 501 kts 153°
2026-05-06 23:17 13.87011 98.32769 36881 ft 501 kts 153°
2026-05-06 23:18 13.80843 98.36002 36877 ft 500 kts 153°
2026-05-06 23:18 13.74638 98.39252 36872 ft 500 kts 153°
2026-05-06 23:19 13.68443 98.42494 36871 ft 500 kts 153°
2026-05-06 23:19 13.62243 98.45738 36869 ft 500 kts 153°
2026-05-06 23:20 13.56045 98.48979 36867 ft 500 kts 153°
2026-05-06 23:20 13.49884 98.52198 36867 ft 500 kts 153°
2026-05-06 23:21 13.43698 98.55461 36861 ft 500 kts 153°
2026-05-06 23:21 13.37522 98.58745 36859 ft 500 kts 153°
2026-05-06 23:22 13.31340 98.62024 36861 ft 500 kts 153°
2026-05-06 23:22 13.25190 98.65281 36859 ft 500 kts 153°
2026-05-06 23:23 13.19002 98.68555 36857 ft 501 kts 153°
2026-05-06 23:23 13.12810 98.71829 36860 ft 501 kts 153°
2026-05-06 23:24 13.06619 98.75102 36874 ft 501 kts 153°
2026-05-06 23:24 13.00429 98.78372 36870 ft 500 kts 153°
2026-05-06 23:25 12.94277 98.81620 36870 ft 500 kts 153°
2026-05-06 23:25 12.88090 98.84885 36870 ft 500 kts 153°
2026-05-06 23:26 12.81902 98.88148 36871 ft 500 kts 153°
2026-05-06 23:26 12.75722 98.91405 36874 ft 500 kts 153°
2026-05-06 23:27 12.69543 98.94661 36874 ft 499 kts 153°
2026-05-06 23:27 12.63407 98.97892 36866 ft 499 kts 153°
2026-05-06 23:28 12.57225 99.01144 36868 ft 499 kts 153°
2026-05-06 23:28 12.52095 99.03843 36862 ft 499 kts 153°
2026-05-06 23:29 12.45915 99.07091 36861 ft 499 kts 153°
2026-05-06 23:29 12.38728 99.10868 36863 ft 499 kts 153°
2026-05-06 23:30 12.32550 99.14112 36863 ft 499 kts 153°
2026-05-06 23:30 12.27417 99.16806 36870 ft 499 kts 153°
2026-05-06 23:31 12.20190 99.20596 36866 ft 499 kts 153°
2026-05-06 23:31 12.14053 99.23814 36876 ft 499 kts 153°
2026-05-06 23:32 12.07874 99.27052 36873 ft 499 kts 153°
2026-05-06 23:32 12.01696 99.30287 36869 ft 499 kts 153°
2026-05-06 23:33 11.96564 99.32973 36867 ft 499 kts 153°
2026-05-06 23:33 11.90385 99.36206 36874 ft 499 kts 153°
2026-05-06 23:34 11.84209 99.39436 36886 ft 499 kts 153°
2026-05-06 23:34 11.77037 99.43184 36881 ft 498 kts 153°
2026-05-06 23:35 11.71903 99.45866 36883 ft 498 kts 153°
2026-05-06 23:35 11.65739 99.49085 36873 ft 498 kts 153°
2026-05-06 23:36 11.59578 99.52307 36860 ft 497 kts 153°
2026-05-06 23:36 11.53434 99.55546 36856 ft 497 kts 153°
2026-05-06 23:37 11.47337 99.58758 36856 ft 496 kts 153°
2026-05-06 23:37 11.41205 99.61984 36849 ft 496 kts 153°
2026-05-06 23:38 11.34076 99.65732 36839 ft 496 kts 153°
2026-05-06 23:38 11.28940 99.68431 36856 ft 496 kts 153°
2026-05-06 23:39 11.22853 99.71629 36841 ft 496 kts 153°
2026-05-06 23:39 11.16718 99.74849 36845 ft 496 kts 153°
2026-05-06 23:40 11.10582 99.78046 36835 ft 496 kts 153°
2026-05-06 23:40 11.04408 99.81185 36838 ft 496 kts 153°
2026-05-06 23:41 10.98243 99.84324 36834 ft 496 kts 153°
2026-05-06 23:41 10.92116 99.87450 36830 ft 496 kts 153°
2026-05-06 23:42 10.85940 99.90601 36836 ft 496 kts 153°
2026-05-06 23:42 10.79765 99.93752 36830 ft 497 kts 153°
2026-05-06 23:43 10.73584 99.96904 36833 ft 497 kts 153°
2026-05-06 23:43 10.67448 100.00031 36829 ft 497 kts 153°
2026-05-06 23:44 10.61259 100.03184 36827 ft 497 kts 153°
2026-05-06 23:44 10.55074 100.06334 36843 ft 497 kts 153°
2026-05-06 23:45 10.48887 100.09483 36850 ft 497 kts 153°
2026-05-06 23:45 10.42738 100.12611 36850 ft 497 kts 153°
2026-05-06 23:46 10.36551 100.15758 36845 ft 497 kts 153°
2026-05-06 23:46 10.30369 100.18900 36847 ft 497 kts 153°
2026-05-06 23:47 10.24181 100.22044 36847 ft 497 kts 153°
2026-05-06 23:47 10.17990 100.25189 36834 ft 497 kts 153°
2026-05-06 23:48 10.11844 100.28309 36822 ft 497 kts 153°
2026-05-06 23:48 10.05657 100.31448 36824 ft 498 kts 153°
2026-05-06 23:49 9.99464 100.34589 36844 ft 498 kts 153°
2026-05-06 23:49 9.93271 100.37730 36848 ft 498 kts 153°
2026-05-06 23:50 9.87078 100.40870 36854 ft 498 kts 153°
2026-05-06 23:50 9.77820 100.45563 36853 ft 498 kts 153°
2026-05-06 23:51 9.71616 100.48705 36842 ft 498 kts 153°
2026-05-06 23:51 9.65426 100.51866 36842 ft 499 kts 153°
2026-05-06 23:52 9.59282 100.55038 36829 ft 499 kts 153°
2026-05-06 23:52 9.53091 100.58226 36843 ft 500 kts 153°
2026-05-06 23:53 9.46892 100.61414 36848 ft 500 kts 153°
2026-05-06 23:53 9.40690 100.64604 36848 ft 500 kts 153°
2026-05-06 23:54 9.34526 100.67773 36846 ft 500 kts 153°
2026-05-06 23:54 9.28319 100.70962 36846 ft 500 kts 153°
2026-05-06 23:55 9.22111 100.74151 36845 ft 501 kts 153°
2026-05-06 23:55 9.15899 100.77340 36842 ft 501 kts 153°
2026-05-06 23:56 9.09685 100.80530 36839 ft 501 kts 154°
2026-05-06 23:56 9.03512 100.83696 36838 ft 501 kts 154°
2026-05-06 23:57 8.97293 100.86885 36838 ft 501 kts 154°
2026-05-06 23:57 8.91070 100.90075 36836 ft 501 kts 154°
2026-05-06 23:58 8.84861 100.93257 36840 ft 501 kts 154°
2026-05-06 23:58 8.78688 100.96419 36842 ft 501 kts 154°
2026-05-06 23:59 8.72473 100.99601 36845 ft 500 kts 154°
2026-05-06 23:59 8.66262 101.02781 36846 ft 500 kts 154°
2026-05-07 00:00 8.60057 101.05956 36843 ft 500 kts 154°
2026-05-07 00:00 8.53897 101.09113 36842 ft 500 kts 154°
2026-05-07 00:01 8.47702 101.12308 36840 ft 500 kts 154°
2026-05-07 00:01 8.41517 101.15495 36835 ft 499 kts 154°
2026-05-07 00:02 8.35329 101.18680 36840 ft 499 kts 154°
2026-05-07 00:02 8.29177 101.21845 36842 ft 499 kts 154°
2026-05-07 00:03 8.22989 101.25027 36839 ft 499 kts 154°
2026-05-07 00:03 8.16798 101.28211 36844 ft 499 kts 153°
2026-05-07 00:04 8.10613 101.31389 36839 ft 499 kts 153°
2026-05-07 00:04 8.04419 101.34572 36838 ft 500 kts 153°
2026-05-07 00:05 7.98262 101.37734 36825 ft 500 kts 153°
2026-05-07 00:05 7.92055 101.40921 36818 ft 500 kts 153°
2026-05-07 00:06 7.85848 101.44107 36823 ft 501 kts 153°
2026-05-07 00:06 7.79633 101.47296 36816 ft 501 kts 153°
2026-05-07 00:07 7.73460 101.50462 36822 ft 502 kts 153°
2026-05-07 00:07 7.67234 101.53650 36836 ft 502 kts 154°
2026-05-07 00:08 7.60767 101.56287 36842 ft 502 kts 160°
2026-05-07 00:08 7.54235 101.58768 36845 ft 502 kts 160°
2026-05-07 00:09 7.47698 101.61260 36841 ft 502 kts 160°
2026-05-07 00:09 7.41209 101.63730 36839 ft 502 kts 160°
2026-05-07 00:10 7.34667 101.66219 36838 ft 503 kts 160°
2026-05-07 00:10 7.28123 101.68708 36845 ft 503 kts 160°
2026-05-07 00:11 7.21572 101.71199 36840 ft 503 kts 160°
2026-05-07 00:11 7.15060 101.73674 36838 ft 504 kts 159°
2026-05-07 00:12 7.08506 101.76165 36817 ft 504 kts 159°
2026-05-07 00:12 7.01943 101.78658 36822 ft 505 kts 159°
2026-05-07 00:13 6.95368 101.81155 36836 ft 505 kts 159°
2026-05-07 00:13 6.88839 101.83633 36845 ft 505 kts 159°
2026-05-07 00:14 6.82268 101.86128 36845 ft 505 kts 159°
2026-05-07 00:14 6.75701 101.88619 36845 ft 505 kts 159°
2026-05-07 00:15 6.69129 101.91112 36848 ft 504 kts 159°
2026-05-07 00:15 6.62567 101.93600 36847 ft 504 kts 159°
2026-05-07 00:16 6.56049 101.96071 36847 ft 504 kts 159°
2026-05-07 00:16 6.49493 101.98556 36850 ft 503 kts 159°
2026-05-07 00:17 6.42948 102.01036 36853 ft 502 kts 159°
2026-05-07 00:17 6.36411 102.03512 36854 ft 502 kts 159°
2026-05-07 00:18 6.29885 102.05983 36852 ft 501 kts 159°
2026-05-07 00:18 6.23401 102.08408 36848 ft 500 kts 160°
2026-05-07 00:19 6.16778 102.10556 36845 ft 500 kts 162°
2026-05-07 00:19 6.10157 102.12685 36843 ft 499 kts 161°
2026-05-07 00:20 6.03564 102.14842 36843 ft 499 kts 161°
2026-05-07 00:20 5.97011 102.16997 36840 ft 498 kts 161°
2026-05-07 00:21 5.90427 102.19162 36839 ft 498 kts 161°
2026-05-07 00:21 5.83853 102.21322 36847 ft 497 kts 161°
2026-05-07 00:22 5.77277 102.23482 36850 ft 497 kts 161°
2026-05-07 00:22 5.70804 102.25873 36851 ft 496 kts 157°
2026-05-07 00:23 5.64444 102.28426 36838 ft 496 kts 157°
2026-05-07 00:23 5.58028 102.30989 36841 ft 496 kts 157°
2026-05-07 00:24 5.51615 102.33552 36837 ft 496 kts 157°
2026-05-07 00:24 5.45200 102.36115 36844 ft 497 kts 157°
2026-05-07 00:25 5.38822 102.38664 36843 ft 497 kts 157°
2026-05-07 00:25 5.32393 102.41231 36840 ft 497 kts 157°
2026-05-07 00:26 5.25966 102.43797 36842 ft 498 kts 157°
2026-05-07 00:26 5.19528 102.46368 36850 ft 498 kts 157°
2026-05-07 00:27 5.13129 102.48923 36861 ft 499 kts 157°
2026-05-07 00:27 5.06682 102.51495 36864 ft 499 kts 157°
2026-05-07 00:28 5.00225 102.54071 36864 ft 499 kts 157°
2026-05-07 00:28 4.93771 102.56645 36847 ft 500 kts 157°
2026-05-07 00:29 4.87311 102.59221 36849 ft 500 kts 157°
2026-05-07 00:30 4.74425 102.64359 36867 ft 500 kts 157°
2026-05-07 00:30 4.67958 102.66936 36870 ft 500 kts 157°
2026-05-07 00:31 4.61496 102.69511 36852 ft 500 kts 157°
2026-05-07 00:31 4.55072 102.72071 36870 ft 500 kts 157°
2026-05-07 00:32 4.48613 102.74644 36872 ft 500 kts 157°
2026-05-07 00:32 4.42146 102.77219 36873 ft 500 kts 157°
2026-05-07 00:33 4.35676 102.79795 36851 ft 500 kts 157°
2026-05-07 00:33 4.29267 102.82347 36854 ft 500 kts 157°
2026-05-07 00:34 4.22804 102.84920 36853 ft 499 kts 157°
2026-05-07 00:34 4.16347 102.87489 36843 ft 499 kts 157°
2026-05-07 00:35 4.09895 102.90057 36849 ft 499 kts 157°
2026-05-07 00:35 4.03439 102.92625 36855 ft 499 kts 157°
2026-05-07 00:36 3.97021 102.95178 36855 ft 499 kts 157°
2026-05-07 00:36 3.90574 102.97742 36864 ft 499 kts 157°
2026-05-07 00:37 3.84125 103.00306 36863 ft 499 kts 157°
2026-05-07 00:37 3.77668 103.02873 36865 ft 499 kts 157°
2026-05-07 00:38 3.71261 103.05419 36864 ft 498 kts 157°
2026-05-07 00:38 3.64823 103.07978 36844 ft 498 kts 157°
2026-05-07 00:39 3.58379 103.10539 36841 ft 498 kts 157°
2026-05-07 00:39 3.51948 103.13094 36841 ft 497 kts 157°
2026-05-07 00:40 3.45559 103.15632 36860 ft 497 kts 157°
2026-05-07 00:40 3.39134 103.18184 36859 ft 496 kts 157°
2026-05-07 00:41 3.32782 103.20875 36861 ft 495 kts 151°
2026-05-07 00:41 3.27069 103.24673 36846 ft 493 kts 139°
2026-05-07 00:42 3.22243 103.29456 36846 ft 491 kts 132°
2026-05-07 00:42 3.17557 103.34424 36857 ft 491 kts 132°
2026-05-07 00:43 3.12856 103.39395 36848 ft 491 kts 132°
2026-05-07 00:43 3.08167 103.44360 36855 ft 491 kts 132°
2026-05-07 00:44 3.03509 103.49296 36854 ft 491 kts 132°
2026-05-07 00:44 2.98821 103.54262 36860 ft 491 kts 132°
2026-05-07 00:45 2.94133 103.59228 36858 ft 491 kts 132°
2026-05-07 00:45 2.89455 103.64198 36869 ft 490 kts 131°
2026-05-07 00:46 2.85074 103.69419 36861 ft 490 kts 129°
2026-05-07 00:46 2.80727 103.74606 36865 ft 490 kts 129°
2026-05-07 00:47 2.76354 103.79821 36857 ft 490 kts 129°
2026-05-07 00:47 2.71979 103.85040 36857 ft 490 kts 129°
2026-05-07 00:48 2.67605 103.90258 36858 ft 489 kts 129°
2026-05-07 00:48 2.65422 103.92862 36728 ft 486 kts 129°
2026-05-07 00:48 2.63286 103.95409 36480 ft 483 kts 129°
2026-05-07 00:49 2.61125 103.97987 36238 ft 484 kts 129°
2026-05-07 00:49 2.58959 104.00570 35983 ft 485 kts 129°
2026-05-07 00:49 2.56793 104.03153 35398 ft 486 kts 129°
2026-05-07 00:49 2.54573 104.05717 34436 ft 492 kts 134°
2026-05-07 00:50 2.51921 104.07919 33463 ft 498 kts 146°
2026-05-07 00:50 2.48871 104.09536 32839 ft 494 kts 157°
2026-05-07 00:50 2.45607 104.10507 32304 ft 489 kts 168°
2026-05-07 00:50 2.42230 104.10825 31710 ft 486 kts 179°
2026-05-07 00:51 2.38913 104.10758 31106 ft 482 kts 181°
2026-05-07 00:51 2.35569 104.10641 30493 ft 478 kts 180°
2026-05-07 00:51 2.32256 104.10558 29874 ft 475 kts 180°
2026-05-07 00:51 2.28966 104.10516 29210 ft 471 kts 179°
2026-05-07 00:52 2.25709 104.10500 28609 ft 465 kts 179°
2026-05-07 00:52 2.22493 104.10496 27998 ft 460 kts 179°
2026-05-07 00:52 2.19306 104.10496 27404 ft 455 kts 178°
2026-05-07 00:52 2.16154 104.10497 26808 ft 451 kts 178°
2026-05-07 00:53 2.13074 104.10498 26223 ft 447 kts 178°
2026-05-07 00:53 2.09979 104.10499 25632 ft 443 kts 178°
2026-05-07 00:53 2.06905 104.10499 25043 ft 440 kts 178°
2026-05-07 00:53 2.03853 104.10499 24453 ft 437 kts 178°
2026-05-07 00:54 2.00830 104.10499 23867 ft 434 kts 178°
2026-05-07 00:54 1.97812 104.10500 23089 ft 434 kts 178°
2026-05-07 00:54 1.94801 104.10510 22430 ft 431 kts 178°
2026-05-07 00:54 1.91835 104.10525 22046 ft 421 kts 178°
2026-05-07 00:55 1.88964 104.10540 21465 ft 416 kts 178°
2026-05-07 00:55 1.86086 104.10554 20892 ft 412 kts 178°
2026-05-07 00:55 1.83227 104.10568 20315 ft 409 kts 178°
2026-05-07 00:55 1.80393 104.10581 19743 ft 406 kts 178°
2026-05-07 00:56 1.77581 104.10594 19174 ft 403 kts 178°
2026-05-07 00:56 1.74779 104.10607 18604 ft 401 kts 178°
2026-05-07 00:56 1.71999 104.10620 18014 ft 399 kts 178°
2026-05-07 00:56 1.69239 104.10632 17417 ft 395 kts 178°
2026-05-07 00:57 1.66502 104.10643 16858 ft 390 kts 178°
2026-05-07 00:57 1.63838 104.10655 16308 ft 386 kts 178°
2026-05-07 00:57 1.61166 104.10729 15756 ft 381 kts 173°
2026-05-07 00:57 1.58559 104.11097 15207 ft 376 kts 169°
2026-05-07 00:58 1.55982 104.11491 14671 ft 373 kts 169°
2026-05-07 00:58 1.53425 104.11868 14136 ft 370 kts 169°
2026-05-07 00:58 1.50892 104.12238 13597 ft 367 kts 169°
2026-05-07 00:58 1.48378 104.12602 13047 ft 362 kts 171°
2026-05-07 00:59 1.43441 104.12058 12023 ft 358 kts 199°
2026-05-07 00:59 1.41162 104.11081 11498 ft 354 kts 202°
2026-05-07 00:59 1.38944 104.10126 11007 ft 351 kts 201°
2026-05-07 01:00 1.36707 104.09182 10505 ft 347 kts 201°
2026-05-07 01:00 1.34511 104.08259 10230 ft 336 kts 201°
2026-05-07 01:00 1.32404 104.07370 10118 ft 321 kts 202°
2026-05-07 01:00 1.30385 104.06516 9998 ft 308 kts 201°
2026-05-07 01:01 1.28450 104.05697 9819 ft 299 kts 202°
2026-05-07 01:01 1.26562 104.04898 9495 ft 294 kts 202°
2026-05-07 01:01 1.24663 104.04095 9035 ft 296 kts 202°
2026-05-07 01:01 1.22782 104.03300 8868 ft 293 kts 202°
2026-05-07 01:02 1.20923 104.02513 8612 ft 293 kts 202°
2026-05-07 01:02 1.19060 104.01724 8295 ft 289 kts 202°
2026-05-07 01:02 1.17218 104.00944 8050 ft 287 kts 202°
2026-05-07 01:02 1.15373 104.00162 7779 ft 288 kts 202°
2026-05-07 01:03 1.13496 103.99525 7454 ft 284 kts 187°
2026-05-07 01:03 1.11560 103.99678 7164 ft 281 kts 161°
2026-05-07 01:03 1.09901 104.00676 6860 ft 280 kts 135°
2026-05-07 01:03 1.08863 104.02303 6567 ft 280 kts 110°
2026-05-07 01:04 1.08579 104.04217 6270 ft 282 kts 89°
2026-05-07 01:04 1.09033 104.06089 5957 ft 284 kts 63°
2026-05-07 01:04 1.10278 104.07593 5640 ft 283 kts 37°
2026-05-07 01:04 1.11954 104.08616 5335 ft 283 kts 28°
2026-05-07 01:05 1.13715 104.09483 5030 ft 281 kts 26°
2026-05-07 01:05 1.15469 104.10329 4713 ft 279 kts 25°
2026-05-07 01:05 1.17252 104.11091 4393 ft 279 kts 21°
2026-05-07 01:05 1.19059 104.11776 4103 ft 277 kts 21°
2026-05-07 01:06 1.20857 104.12457 4009 ft 276 kts 21°
2026-05-07 01:06 1.22638 104.13134 3997 ft 274 kts 21°
2026-05-07 01:06 1.24406 104.13806 4001 ft 276 kts 21°
2026-05-07 01:06 1.26203 104.14487 4002 ft 276 kts 21°
2026-05-07 01:07 1.27998 104.15167 3996 ft 276 kts 21°
2026-05-07 01:07 1.29790 104.15845 3999 ft 276 kts 21°
2026-05-07 01:07 1.31586 104.16526 3991 ft 276 kts 21°
2026-05-07 01:07 1.33379 104.17205 3995 ft 276 kts 21°
2026-05-07 01:08 1.35175 104.17875 3994 ft 275 kts 17°
2026-05-07 01:08 1.37067 104.18038 3998 ft 276 kts 350°
2026-05-07 01:08 1.38852 104.17318 4001 ft 289 kts 323°
2026-05-07 01:08 1.40239 104.15798 3993 ft 310 kts 299°
2026-05-07 01:09 1.40922 104.13748 3996 ft 315 kts 275°
2026-05-07 01:09 1.40725 104.11589 4002 ft 314 kts 251°
2026-05-07 01:09 1.39680 104.09703 4002 ft 311 kts 228°
2026-05-07 01:09 1.37973 104.08404 4001 ft 309 kts 207°
2026-05-07 01:10 1.36037 104.07476 4004 ft 310 kts 203°
2026-05-07 01:10 1.34037 104.06681 3999 ft 310 kts 200°
2026-05-07 01:10 1.32035 104.05881 4001 ft 309 kts 202°
2026-05-07 01:10 1.30048 104.05056 3930 ft 310 kts 202°
2026-05-07 01:11 1.28070 104.04200 3662 ft 309 kts 203°
2026-05-07 01:11 1.26109 104.03345 3366 ft 307 kts 203°
2026-05-07 01:11 1.24189 104.02504 3099 ft 304 kts 203°
2026-05-07 01:11 1.22267 104.01664 3008 ft 302 kts 203°
2026-05-07 01:12 1.20333 104.00823 2994 ft 305 kts 203°
2026-05-07 01:12 1.18406 103.99985 2994 ft 293 kts 203°
2026-05-07 01:12 1.16604 103.99197 2998 ft 274 kts 203°
2026-05-07 01:12 1.14914 103.98457 2993 ft 257 kts 203°
2026-05-07 01:13 1.13312 103.97756 2999 ft 247 kts 203°
2026-05-07 01:13 1.11768 103.97076 2992 ft 240 kts 203°
2026-05-07 01:13 1.10234 103.96401 3000 ft 242 kts 203°
2026-05-07 01:13 1.08717 103.95733 2995 ft 241 kts 203°
2026-05-07 01:14 1.07175 103.95059 2996 ft 242 kts 204°
2026-05-07 01:14 1.05820 103.94114 2996 ft 236 kts 230°
2026-05-07 01:14 1.05170 103.92672 2989 ft 226 kts 262°
2026-05-07 01:14 1.05340 103.91170 2992 ft 214 kts 290°
2026-05-07 01:15 1.06139 103.89990 2987 ft 196 kts 317°
2026-05-07 01:15 1.07267 103.89319 3000 ft 186 kts 341°
2026-05-07 01:15 1.08509 103.89169 2992 ft 174 kts
2026-05-07 01:15 1.09640 103.89439 2986 ft 162 kts 17°
2026-05-07 01:16 1.10696 103.89717 2986 ft 158 kts 14°
2026-05-07 01:16 1.11759 103.89973 2988 ft 157 kts 14°
2026-05-07 01:16 1.12824 103.90229 2989 ft 157 kts 14°
2026-05-07 01:16 1.13886 103.90489 2989 ft 158 kts 14°
2026-05-07 01:17 1.14950 103.90753 2994 ft 157 kts 14°
2026-05-07 01:17 1.16013 103.91019 2993 ft 157 kts 14°
2026-05-07 01:17 1.17076 103.91286 2991 ft 158 kts 14°
2026-05-07 01:17 1.18136 103.91553 2992 ft 157 kts 14°
2026-05-07 01:18 1.19199 103.91820 2997 ft 158 kts 15°
2026-05-07 01:18 1.20250 103.92085 2932 ft 158 kts 14°
2026-05-07 01:18 1.21313 103.92353 2621 ft 159 kts 14°
2026-05-07 01:18 1.22383 103.92607 2172 ft 155 kts 15°
2026-05-07 01:19 1.23401 103.92923 2008 ft 153 kts 20°
2026-05-07 01:19 1.24397 103.93305 1997 ft 154 kts 23°
2026-05-07 01:19 1.25389 103.93716 1992 ft 155 kts 24°
2026-05-07 01:19 1.26380 103.94135 1791 ft 154 kts 24°
2026-05-07 01:20 1.27361 103.94550 1604 ft 153 kts 24°
2026-05-07 01:20 1.28325 103.94959 1409 ft 152 kts 24°
2026-05-07 01:20 1.29298 103.95372 1216 ft 152 kts 24°
2026-05-07 01:20 1.30271 103.95785 1019 ft 153 kts 24°
2026-05-07 01:21 1.31245 103.96198 825 ft 152 kts 24°
2026-05-07 01:21 1.32209 103.96606 657 ft 150 kts 24°
2026-05-07 01:21 1.33167 103.97018 433 ft 149 kts 24°
2026-05-07 01:21 1.34115 103.97416 243 ft 147 kts 23°
2026-05-07 01:22 1.35059 103.97813 60 ft 147 kts 23°
2026-05-07 01:22 1.35916 103.98173 37 ft 112 kts 23°
2026-05-07 01:22 1.36454 103.98400 38 ft 57 kts 23°
2026-05-07 01:22 1.36615 103.98469 38 ft 14 kts 32°
2026-05-07 01:23 1.36688 103.98549 38 ft 18 kts 53°
2026-05-07 01:23 1.36745 103.98631 37 ft 10 kts 71°
2026-05-07 01:23 1.36721 103.98680 38 ft 8 kts 156°
2026-05-07 01:23 1.36651 103.98679 38 ft 13 kts 197°
2026-05-07 01:24 1.36561 103.98641 38 ft 15 kts 204°
2026-05-07 01:24 1.36479 103.98607 38 ft 10 kts 195°
2026-05-07 01:24 1.36420 103.98635 38 ft 12 kts 133°
2026-05-07 01:24 1.36345 103.98647 38 ft 13 kts 196°
2026-05-07 01:25 1.36245 103.98608 38 ft 17 kts 202°
2026-05-07 01:25 1.36123 103.98557 38 ft 20 kts 202°
2026-05-07 01:25 1.35986 103.98499 38 ft 20 kts 202°
2026-05-07 01:25 1.35878 103.98453 38 ft 17 kts 203°
2026-05-07 01:26 1.35784 103.98413 38 ft 12 kts 203°
2026-05-07 01:26 1.35746 103.98397 38 ft 4 kts 203°
2026-05-07 01:26 1.35700 103.98379 38 ft 10 kts 201°
2026-05-07 01:26 1.35633 103.98352 38 ft 12 kts 202°
2026-05-07 01:27 1.35563 103.98322 38 ft 8 kts 203°
2026-05-07 01:27 1.35517 103.98310 38 ft 5 kts 161°
2026-05-07 01:27 1.35495 103.98341 38 ft 8 kts 109°
2026-05-07 01:27 1.35491 103.98358 38 ft 2 kts 97°
2026-05-07 01:28 1.35488 103.98380 38 ft 4 kts 98°
2026-05-07 01:28 1.35485 103.98396 38 ft 0 kts 98°
2026-05-07 01:28 1.35485 103.98398 38 ft 0 kts 98°